Wetterdaten: Donnerstag, 19.11.2020
Datum Zeit Temp. Aussen Temp. o. S. Temp +5cm Feuchte Auss Luftdruck Regen Sonnenschein Regendauer Solar Windben Empfang
19.11.2020 00:00 14,4 C 13,9 C 12,2 C 76 % 1016,7 hPa 0,0 l/m 0 min 0 min 0 W/m 48,3 km/h (6 Bft) 95,74 %
19.11.2020 00:02 14,4 C 13,9 C 12,2 C 76 % 1016,7 hPa 0,0 l/m 0 min 0 min 0 W/m 35,4 km/h (5 Bft) 91,18 %
19.11.2020 00:04 14,4 C 13,9 C 12,2 C 76 % 1016,7 hPa 0,0 l/m 0 min 0 min 0 W/m 35,4 km/h (5 Bft) 97,87 %
19.11.2020 00:08 14,4 C 13,9 C 12,2 C 76 % 1016,8 hPa 0,0 l/m 0 min 0 min 0 W/m 38,6 km/h (5 Bft) 97,87 %
19.11.2020 00:10 14,4 C 13,9 C 12,2 C 76 % 1016,6 hPa 0,0 l/m 0 min 0 min 0 W/m 51,5 km/h (7 Bft) 97,83 %
19.11.2020 00:12 14,4 C 13,9 C 12,2 C 76 % 1016,6 hPa 0,0 l/m 0 min 0 min 0 W/m 25,7 km/h (4 Bft) 95,74 %
19.11.2020 00:14 14,4 C 13,9 C 12,2 C 76 % 1016,7 hPa 0,0 l/m 0 min 0 min 0 W/m 38,6 km/h (5 Bft) 95,74 %
19.11.2020 00:16 14,4 C 13,9 C 12,2 C 76 % 1016,6 hPa 0,0 l/m 0 min 0 min 0 W/m 38,6 km/h (5 Bft) 97,87 %
19.11.2020 00:18 14,4 C 13,9 C 12,2 C 76 % 1016,5 hPa 0,0 l/m 0 min 0 min 0 W/m 29,0 km/h (5 Bft) 97,87 %
19.11.2020 00:20 14,4 C 13,9 C 12,2 C 76 % 1016,5 hPa 0,0 l/m 0 min 0 min 0 W/m 35,4 km/h (5 Bft) 100,00 %
19.11.2020 00:22 14,4 C 13,9 C 12,2 C 76 % 1016,5 hPa 0,0 l/m 0 min 0 min 0 W/m 38,6 km/h (5 Bft) 100,00 %
19.11.2020 00:24 14,4 C 13,9 C 12,2 C 76 % 1016,5 hPa 0,0 l/m 0 min 0 min 0 W/m 45,1 km/h (6 Bft) 100,00 %
19.11.2020 00:26 14,4 C 13,9 C 12,2 C 76 % 1016,6 hPa 0,0 l/m 0 min 0 min 0 W/m 41,8 km/h (6 Bft) 97,87 %
19.11.2020 00:28 14,4 C 13,9 C 12,2 C 76 % 1016,6 hPa 0,0 l/m 0 min 0 min 0 W/m 29,0 km/h (5 Bft) 97,87 %
19.11.2020 00:30 14,4 C 13,9 C 12,2 C 77 % 1016,5 hPa 0,0 l/m 0 min 0 min 0 W/m 45,1 km/h (6 Bft) 100,00 %
19.11.2020 00:32 14,4 C 13,9 C 12,2 C 77 % 1016,6 hPa 0,0 l/m 0 min 0 min 0 W/m 41,8 km/h (6 Bft) 100,00 %
19.11.2020 00:34 14,4 C 13,9 C 12,2 C 77 % 1016,6 hPa 0,0 l/m 0 min 0 min 0 W/m 38,6 km/h (5 Bft) 100,00 %
19.11.2020 00:36 14,4 C 13,9 C 12,2 C 77 % 1016,4 hPa 0,0 l/m 0 min 0 min 0 W/m 35,4 km/h (5 Bft) 97,87 %
19.11.2020 00:38 14,4 C 13,3 C 12,2 C 77 % 1016,5 hPa 0,0 l/m 0 min 0 min 0 W/m 25,7 km/h (4 Bft) 97,87 %
19.11.2020 00:40 14,3 C 13,3 C 12,2 C 77 % 1016,5 hPa 0,0 l/m 0 min 0 min 0 W/m 22,5 km/h (4 Bft) 97,87 %
19.11.2020 00:42 14,3 C 13,3 C 12,2 C 78 % 1016,5 hPa 0,0 l/m 0 min 0 min 0 W/m 41,8 km/h (6 Bft) 97,87 %
19.11.2020 00:44 14,3 C 13,9 C 12,2 C 78 % 1016,6 hPa 0,0 l/m 0 min 0 min 0 W/m 41,8 km/h (6 Bft) 97,83 %
19.11.2020 00:46 14,3 C 13,3 C 12,2 C 78 % 1016,6 hPa 0,0 l/m 0 min 0 min 0 W/m 35,4 km/h (5 Bft) 97,87 %
19.11.2020 00:48 14,2 C 13,3 C 12,2 C 78 % 1016,5 hPa 0,0 l/m 0 min 0 min 0 W/m 29,0 km/h (5 Bft) 97,87 %
19.11.2020 00:50 14,2 C 13,3 C 12,2 C 78 % 1016,5 hPa 0,0 l/m 0 min 0 min 0 W/m 29,0 km/h (5 Bft) 95,74 %
19.11.2020 00:52 14,2 C 13,3 C 12,2 C 79 % 1016,6 hPa 0,0 l/m 0 min 0 min 0 W/m 29,0 km/h (5 Bft) 95,74 %
19.11.2020 00:54 14,2 C 13,3 C 12,2 C 79 % 1016,5 hPa 0,0 l/m 0 min 0 min 0 W/m 41,8 km/h (6 Bft) 95,74 %
19.11.2020 00:56 14,2 C 13,3 C 12,2 C 79 % 1016,5 hPa 0,0 l/m 0 min 0 min 0 W/m 38,6 km/h (5 Bft) 97,83 %
19.11.2020 00:58 14,2 C 13,3 C 12,2 C 79 % 1016,5 hPa 0,0 l/m 0 min 0 min 0 W/m 25,7 km/h (4 Bft) 97,87 %
19.11.2020 01:00 14,2 C 13,3 C 12,2 C 79 % 1016,4 hPa 0,0 l/m 0 min 0 min 0 W/m 25,7 km/h (4 Bft) 100,00 %
19.11.2020 01:02 14,2 C 13,3 C 12,2 C 79 % 1016,5 hPa 0,0 l/m 0 min 0 min 0 W/m 38,6 km/h (5 Bft) 95,74 %
19.11.2020 01:04 14,2 C 13,3 C 12,2 C 79 % 1016,5 hPa 0,0 l/m 0 min 0 min 0 W/m 32,2 km/h (5 Bft) 95,74 %
19.11.2020 01:06 14,2 C 13,3 C 12,2 C 79 % 1016,5 hPa 0,0 l/m 0 min 0 min 0 W/m 38,6 km/h (5 Bft) 95,74 %
19.11.2020 01:08 14,2 C 13,3 C 12,2 C 80 % 1016,5 hPa 0,0 l/m 0 min 0 min 0 W/m 45,1 km/h (6 Bft) 95,65 %
19.11.2020 01:10 14,2 C 13,3 C 12,2 C 80 % 1016,5 hPa 0,0 l/m 0 min 0 min 0 W/m 32,2 km/h (5 Bft) 96,30 %
19.11.2020 01:12 14,2 C 13,3 C 12,2 C 80 % 1016,5 hPa 0,0 l/m 0 min 0 min 0 W/m 25,7 km/h (4 Bft) 93,48 %
19.11.2020 01:14 14,2 C 13,3 C 12,2 C 80 % 1016,5 hPa 0,0 l/m 0 min 0 min 0 W/m 38,6 km/h (5 Bft) 95,83 %
19.11.2020 01:16 14,2 C 13,3 C 12,2 C 80 % 1016,5 hPa 0,0 l/m 0 min 0 min 0 W/m 29,0 km/h (5 Bft) 95,74 %
19.11.2020 01:18 14,2 C 13,3 C 11,7 C 80 % 1016,4 hPa 0,0 l/m 0 min 0 min 0 W/m 29,0 km/h (5 Bft) 97,87 %
19.11.2020 01:20 14,2 C 13,3 C 12,2 C 81 % 1016,5 hPa 0,0 l/m 0 min 0 min 0 W/m 29,0 km/h (5 Bft) 95,74 %
19.11.2020 01:22 14,2 C 13,3 C 12,2 C 81 % 1016,5 hPa 0,0 l/m 0 min 0 min 0 W/m 25,7 km/h (4 Bft) 95,74 %
19.11.2020 01:24 14,2 C 13,3 C 12,2 C 81 % 1016,5 hPa 0,0 l/m 0 min 0 min 0 W/m 29,0 km/h (5 Bft) 50,00 %
19.11.2020 01:26 14,2 C 13,3 C 12,2 C 81 % 1016,6 hPa 0,0 l/m 0 min 0 min 0 W/m 35,4 km/h (5 Bft) 95,74 %
19.11.2020 01:28 14,1 C 13,3 C 12,2 C 81 % 1016,4 hPa 0,0 l/m 0 min 0 min 0 W/m 38,6 km/h (5 Bft) 95,74 %
19.11.2020 01:30 14,2 C 13,3 C 12,2 C 81 % 1016,4 hPa 0,0 l/m 0 min 0 min 0 W/m 45,1 km/h (6 Bft) 93,62 %
19.11.2020 01:32 14,2 C 13,3 C 12,2 C 81 % 1016,4 hPa 0,0 l/m 0 min 0 min 0 W/m 41,8 km/h (6 Bft) 97,87 %
19.11.2020 01:34 14,2 C 13,3 C 12,2 C 81 % 1016,3 hPa 0,0 l/m 0 min 0 min 0 W/m 41,8 km/h (6 Bft) 97,87 %
19.11.2020 01:36 14,2 C 13,3 C 12,2 C 82 % 1016,4 hPa 0,0 l/m 0 min 0 min 0 W/m 38,6 km/h (5 Bft) 97,83 %
19.11.2020 01:38 14,2 C 13,3 C 12,2 C 82 % 1016,4 hPa 0,0 l/m 0 min 0 min 0 W/m 41,8 km/h (6 Bft) 98,00 %
19.11.2020 01:40 14,2 C 13,3 C 12,2 C 82 % 1016,5 hPa 0,0 l/m 0 min 0 min 0 W/m 45,1 km/h (6 Bft) 91,49 %
19.11.2020 01:42 14,2 C 13,3 C 12,2 C 82 % 1016,4 hPa 0,0 l/m 0 min 0 min 0 W/m 45,1 km/h (6 Bft) 97,87 %
19.11.2020 01:44 14,2 C 13,3 C 12,2 C 82 % 1016,4 hPa 0,0 l/m 0 min 0 min 0 W/m 29,0 km/h (5 Bft) 95,74 %
19.11.2020 01:46 14,2 C 13,3 C 12,2 C 82 % 1016,4 hPa 0,0 l/m 0 min 0 min 0 W/m 32,2 km/h (5 Bft) 97,83 %
19.11.2020 01:48 14,2 C 13,3 C 12,2 C 82 % 1016,4 hPa 0,0 l/m 0 min 0 min 0 W/m 41,8 km/h (6 Bft) 100,00 %
19.11.2020 01:50 14,2 C 13,3 C 12,2 C 82 % 1016,6 hPa 0,0 l/m 0 min 0 min 0 W/m 41,8 km/h (6 Bft) 97,87 %
19.11.2020 01:52 14,2 C 13,3 C 12,2 C 82 % 1016,4 hPa 0,0 l/m 0 min 0 min 0 W/m 48,3 km/h (6 Bft) 100,00 %
19.11.2020 01:54 14,2 C 13,9 C 12,2 C 82 % 1016,4 hPa 0,0 l/m 0 min 0 min 0 W/m 51,5 km/h (7 Bft) 100,00 %
19.11.2020 01:56 14,2 C 13,3 C 12,2 C 83 % 1016,4 hPa 0,0 l/m 0 min 0 min 0 W/m 35,4 km/h (5 Bft) 100,00 %
19.11.2020 01:58 14,2 C 13,3 C 12,2 C 83 % 1016,4 hPa 0,0 l/m 0 min 0 min 0 W/m 45,1 km/h (6 Bft) 100,00 %
19.11.2020 02:00 14,2 C 13,3 C 12,2 C 83 % 1016,2 hPa 0,0 l/m 0 min 0 min 0 W/m 29,0 km/h (5 Bft) 100,00 %
19.11.2020 02:02 14,2 C 13,3 C 12,2 C 83 % 1016,3 hPa 0,0 l/m 0 min 0 min 0 W/m 35,4 km/h (5 Bft) 97,87 %
19.11.2020 02:04 14,2 C 13,3 C 12,2 C 83 % 1016,4 hPa 0,0 l/m 0 min 0 min 0 W/m 32,2 km/h (5 Bft) 100,00 %
19.11.2020 02:06 14,2 C 13,3 C 12,2 C 83 % 1016,5 hPa 0,0 l/m 0 min 0 min 0 W/m 32,2 km/h (5 Bft) 100,00 %
19.11.2020 02:08 14,2 C 13,3 C 12,2 C 84 % 1016,4 hPa 0,0 l/m 0 min 0 min 0 W/m 38,6 km/h (5 Bft) 97,96 %
19.11.2020 02:10 14,2 C 13,3 C 12,2 C 84 % 1016,4 hPa 0,0 l/m 0 min 0 min 0 W/m 22,5 km/h (4 Bft) 100,00 %
19.11.2020 02:12 14,2 C 13,3 C 12,2 C 84 % 1016,4 hPa 0,0 l/m 0 min 0 min 0 W/m 22,5 km/h (4 Bft) 97,87 %
19.11.2020 02:14 14,2 C 13,3 C 12,2 C 84 % 1016,3 hPa 0,0 l/m 0 min 0 min 0 W/m 16,1 km/h (3 Bft) 100,00 %
19.11.2020 02:16 14,2 C 12,8 C 11,7 C 84 % 1016,4 hPa 0,0 l/m 0 min 0 min 0 W/m 32,2 km/h (5 Bft) 100,00 %
19.11.2020 02:18 14,2 C 12,2 C 11,7 C 85 % 1016,4 hPa 0,0 l/m 0 min 0 min 0 W/m 25,7 km/h (4 Bft) 97,87 %
19.11.2020 02:20 14,2 C 12,2 C 11,1 C 85 % 1016,4 hPa 0,0 l/m 0 min 0 min 0 W/m 25,7 km/h (4 Bft) 100,00 %
19.11.2020 02:22 14,2 C 12,2 C 11,1 C 86 % 1016,5 hPa 0,0 l/m 0 min 2 min 0 W/m 51,5 km/h (7 Bft) 100,00 %
19.11.2020 02:24 14,2 C 12,2 C 11,1 C 86 % 1016,5 hPa 0,0 l/m 0 min 2 min 0 W/m 29,0 km/h (5 Bft) 100,00 %
19.11.2020 02:26 14,1 C 12,2 C 11,1 C 86 % 1016,4 hPa 0,0 l/m 0 min 2 min 0 W/m 22,5 km/h (4 Bft) 97,83 %
19.11.2020 02:28 14,1 C 12,2 C 10,6 C 87 % 1016,4 hPa 0,0 l/m 0 min 2 min 0 W/m 25,7 km/h (4 Bft) 97,87 %
19.11.2020 02:30 14,0 C 12,2 C 10,6 C 87 % 1016,4 hPa 0,0 l/m 0 min 0 min 0 W/m 16,1 km/h (3 Bft) 95,74 %
19.11.2020 02:32 14,0 C 12,2 C 10,6 C 87 % 1016,3 hPa 0,0 l/m 0 min 0 min 0 W/m 12,9 km/h (3 Bft) 95,74 %
19.11.2020 02:34 13,9 C 12,2 C 10,6 C 88 % 1016,4 hPa 0,0 l/m 0 min 2 min 0 W/m 22,5 km/h (4 Bft) 97,87 %
19.11.2020 02:36 13,9 C 12,2 C 10,6 C 88 % 1016,4 hPa 0,0 l/m 0 min 0 min 0 W/m 19,3 km/h (3 Bft) 97,83 %
19.11.2020 02:38 13,9 C 12,2 C 10,6 C 88 % 1016,4 hPa 0,0 l/m 0 min 0 min 0 W/m 16,1 km/h (3 Bft) 97,87 %
19.11.2020 02:40 13,8 C 12,2 C 10,6 C 88 % 1016,5 hPa 0,0 l/m 0 min 2 min 0 W/m 38,6 km/h (5 Bft) 97,14 %
19.11.2020 02:42 13,8 C 11,7 C 10,6 C 89 % 1016,8 hPa 0,0 l/m 0 min 2 min 0 W/m 48,3 km/h (6 Bft) 97,87 %
19.11.2020 02:44 13,6 C 11,1 C 10,0 C 88 % 1016,9 hPa 0,2 l/m 0 min 2 min 0 W/m 67,6 km/h (8 Bft) 97,87 %
19.11.2020 02:46 13,3 C 10,6 C 9,5 C 87 % 1016,9 hPa 0,0 l/m 0 min 2 min 0 W/m 29,0 km/h (5 Bft) 97,87 %
19.11.2020 02:48 13,0 C 10,6 C 9,5 C 87 % 1016,9 hPa 0,0 l/m 0 min 2 min 0 W/m 29,0 km/h (5 Bft) 97,87 %
19.11.2020 02:50 12,8 C 10,6 C 9,5 C 87 % 1017,0 hPa 0,0 l/m 0 min 2 min 0 W/m 25,7 km/h (4 Bft) 97,87 %
19.11.2020 02:52 12,6 C 10,0 C 8,9 C 87 % 1017,0 hPa 0,0 l/m 0 min 2 min 0 W/m 38,6 km/h (5 Bft) 97,83 %
19.11.2020 02:54 12,4 C 10,0 C 8,9 C 87 % 1017,0 hPa 0,0 l/m 0 min 2 min 0 W/m 19,3 km/h (3 Bft) 97,87 %
19.11.2020 02:56 12,3 C 10,0 C 8,9 C 86 % 1017,0 hPa 0,0 l/m 0 min 2 min 0 W/m 19,3 km/h (3 Bft) 95,74 %
19.11.2020 02:58 12,1 C 10,0 C 8,4 C 87 % 1017,2 hPa 0,0 l/m 0 min 2 min 0 W/m 29,0 km/h (5 Bft) 93,62 %
19.11.2020 03:00 11,9 C 10,0 C 8,9 C 87 % 1017,0 hPa 0,0 l/m 0 min 2 min 0 W/m 19,3 km/h (3 Bft) 95,74 %
19.11.2020 03:02 11,8 C 10,0 C 8,4 C 86 % 1017,1 hPa 0,0 l/m 0 min 2 min 0 W/m 22,5 km/h (4 Bft) 98,28 %
19.11.2020 03:04 11,7 C 10,0 C 8,4 C 87 % 1017,2 hPa 0,0 l/m 0 min 2 min 0 W/m 9,7 km/h (2 Bft) 97,87 %
19.11.2020 03:06 11,5 C 10,0 C 8,4 C 87 % 1017,1 hPa 0,0 l/m 0 min 2 min 0 W/m 19,3 km/h (3 Bft) 97,83 %
19.11.2020 03:08 11,5 C 10,0 C 8,4 C 87 % 1017,1 hPa 0,0 l/m 0 min 2 min 0 W/m 22,5 km/h (4 Bft) 97,87 %
19.11.2020 03:10 11,4 C 10,0 C 8,4 C 87 % 1017,2 hPa 0,0 l/m 0 min 2 min 0 W/m 9,7 km/h (2 Bft) 97,22 %
19.11.2020 03:12 11,4 C 10,0 C 8,4 C 87 % 1017,2 hPa 0,0 l/m 0 min 0 min 0 W/m 12,9 km/h (3 Bft) 97,87 %
19.11.2020 03:14 11,3 C 10,0 C 8,4 C 87 % 1017,2 hPa 0,0 l/m 0 min 2 min 0 W/m 16,1 km/h (3 Bft) 97,87 %
19.11.2020 03:16 11,3 C 10,0 C 8,9 C 87 % 1017,3 hPa 0,0 l/m 0 min 0 min 0 W/m 19,3 km/h (3 Bft) 100,00 %
19.11.2020 03:18 11,2 C 10,0 C 8,9 C 87 % 1017,3 hPa 0,0 l/m 0 min 0 min 0 W/m 12,9 km/h (3 Bft) 100,00 %
19.11.2020 03:20 11,1 C 10,0 C 8,9 C 87 % 1017,4 hPa 0,0 l/m 0 min 0 min 0 W/m 16,1 km/h (3 Bft) 100,00 %
19.11.2020 03:22 11,1 C 10,6 C 8,9 C 86 % 1017,4 hPa 0,0 l/m 0 min 0 min 0 W/m 16,1 km/h (3 Bft) 100,00 %
19.11.2020 03:24 11,1 C 10,6 C 8,9 C 86 % 1017,5 hPa 0,0 l/m 0 min 0 min 0 W/m 16,1 km/h (3 Bft) 100,00 %
19.11.2020 03:26 11,0 C 10,0 C 8,9 C 86 % 1017,5 hPa 0,0 l/m 0 min 0 min 0 W/m 12,9 km/h (3 Bft) 100,00 %
19.11.2020 03:28 11,0 C 10,0 C 8,9 C 85 % 1017,5 hPa 0,0 l/m 0 min 0 min 0 W/m 19,3 km/h (3 Bft) 100,00 %
19.11.2020 03:30 11,0 C 10,6 C 8,9 C 85 % 1017,5 hPa 0,0 l/m 0 min 0 min 0 W/m 32,2 km/h (5 Bft) 100,00 %
19.11.2020 03:32 11,0 C 10,6 C 8,9 C 85 % 1017,5 hPa 0,0 l/m 0 min 0 min 0 W/m 22,5 km/h (4 Bft) 100,00 %
19.11.2020 03:34 10,9 C 10,6 C 8,9 C 85 % 1017,5 hPa 0,0 l/m 0 min 0 min 0 W/m 22,5 km/h (4 Bft) 100,00 %
19.11.2020 03:36 10,9 C 10,6 C 8,9 C 84 % 1017,5 hPa 0,0 l/m 0 min 0 min 0 W/m 12,9 km/h (3 Bft) 100,00 %
19.11.2020 03:38 10,9 C 10,0 C 8,9 C 84 % 1017,5 hPa 0,0 l/m 0 min 0 min 0 W/m 19,3 km/h (3 Bft) 100,00 %
19.11.2020 03:40 10,9 C 10,0 C 8,9 C 84 % 1017,5 hPa 0,0 l/m 0 min 0 min 0 W/m 16,1 km/h (3 Bft) 100,00 %
19.11.2020 03:42 10,9 C 10,0 C 8,9 C 84 % 1017,5 hPa 0,0 l/m 0 min 0 min 0 W/m 12,9 km/h (3 Bft) 100,00 %
19.11.2020 03:44 10,9 C 10,0 C 9,5 C 84 % 1017,6 hPa 0,0 l/m 0 min 0 min 0 W/m 19,3 km/h (3 Bft) 100,00 %
19.11.2020 03:46 10,9 C 10,6 C 9,5 C 84 % 1017,5 hPa 0,0 l/m 0 min 0 min 0 W/m 25,7 km/h (4 Bft) 100,00 %
19.11.2020 03:48 10,9 C 10,6 C 9,5 C 83 % 1017,6 hPa 0,0 l/m 0 min 0 min 0 W/m 38,6 km/h (5 Bft) 100,00 %
19.11.2020 03:50 10,9 C 10,6 C 9,5 C 82 % 1017,6 hPa 0,0 l/m 0 min 0 min 0 W/m 19,3 km/h (3 Bft) 100,00 %
19.11.2020 03:52 10,9 C 10,6 C 9,5 C 82 % 1017,7 hPa 0,0 l/m 0 min 0 min 0 W/m 29,0 km/h (5 Bft) 97,87 %
19.11.2020 03:54 10,9 C 10,6 C 9,5 C 82 % 1017,6 hPa 0,0 l/m 0 min 0 min 0 W/m 32,2 km/h (5 Bft) 97,87 %
19.11.2020 03:56 10,9 C 10,6 C 9,5 C 81 % 1017,7 hPa 0,0 l/m 0 min 0 min 0 W/m 29,0 km/h (5 Bft) 97,87 %
19.11.2020 03:58 10,9 C 10,6 C 9,5 C 81 % 1017,6 hPa 0,0 l/m 0 min 0 min 0 W/m 25,7 km/h (4 Bft) 97,87 %
19.11.2020 04:00 10,9 C 10,6 C 9,5 C 78 % 1017,6 hPa 0,0 l/m 0 min 0 min 0 W/m 29,0 km/h (5 Bft) 95,74 %
19.11.2020 04:02 10,9 C 10,6 C 9,5 C 78 % 1017,9 hPa 0,0 l/m 0 min 0 min 0 W/m 16,1 km/h (3 Bft) 100,00 %
19.11.2020 04:04 10,9 C 10,6 C 9,5 C 77 % 1017,6 hPa 0,0 l/m 0 min 0 min 0 W/m 25,7 km/h (4 Bft) 94,83 %
19.11.2020 04:06 10,9 C 10,6 C 8,9 C 77 % 1017,6 hPa 0,0 l/m 0 min 0 min 0 W/m 41,8 km/h (6 Bft) 95,74 %
19.11.2020 04:08 11,0 C 10,6 C 8,9 C 76 % 1017,5 hPa 0,0 l/m 0 min 0 min 0 W/m 32,2 km/h (5 Bft) 97,87 %
19.11.2020 04:10 11,0 C 10,6 C 8,9 C 77 % 1017,7 hPa 0,0 l/m 0 min 0 min 0 W/m 29,0 km/h (5 Bft) 97,87 %
19.11.2020 04:12 11,0 C 10,6 C 8,9 C 76 % 1017,6 hPa 0,0 l/m 0 min 0 min 0 W/m 25,7 km/h (4 Bft) 95,74 %
19.11.2020 04:14 11,0 C 10,6 C 8,9 C 75 % 1017,6 hPa 0,0 l/m 0 min 0 min 0 W/m 35,4 km/h (5 Bft) 95,74 %
19.11.2020 04:16 11,0 C 10,0 C 8,4 C 76 % 1017,7 hPa 0,0 l/m 0 min 2 min 0 W/m 25,7 km/h (4 Bft) 95,65 %
19.11.2020 04:18 11,0 C 10,0 C 8,4 C 76 % 1017,8 hPa 0,0 l/m 0 min 2 min 0 W/m 22,5 km/h (4 Bft) 95,74 %
19.11.2020 04:20 11,0 C 10,0 C 8,4 C 76 % 1017,8 hPa 0,0 l/m 0 min 2 min 0 W/m 38,6 km/h (5 Bft) 93,62 %
19.11.2020 04:22 11,0 C 10,0 C 8,4 C 76 % 1017,8 hPa 0,0 l/m 0 min 0 min 0 W/m 6,4 km/h (2 Bft) 95,74 %
19.11.2020 04:24 10,9 C 9,4 C 7,8 C 76 % 1017,8 hPa 0,0 l/m 0 min 2 min 0 W/m 35,4 km/h (5 Bft) 93,62 %
19.11.2020 04:26 10,9 C 9,4 C 7,8 C 75 % 1017,8 hPa 0,0 l/m 0 min 2 min 0 W/m 41,8 km/h (6 Bft) 95,74 %
19.11.2020 04:28 10,8 C 9,4 C 7,8 C 74 % 1017,9 hPa 0,0 l/m 0 min 2 min 0 W/m 64,4 km/h (8 Bft) 97,83 %
19.11.2020 04:30 10,8 C 10,0 C 7,8 C 72 % 1017,9 hPa 0,0 l/m 0 min 2 min 0 W/m 35,4 km/h (5 Bft) 93,62 %
19.11.2020 04:32 10,6 C 9,4 C 8,4 C 71 % 1017,9 hPa 0,0 l/m 0 min 2 min 0 W/m 38,6 km/h (5 Bft) 95,74 %
19.11.2020 04:34 10,6 C 8,9 C 7,2 C 72 % 1017,8 hPa 0,0 l/m 0 min 2 min 0 W/m 19,3 km/h (3 Bft) 95,74 %
19.11.2020 04:36 10,6 C 8,9 C 7,2 C 73 % 1018,0 hPa 0,0 l/m 0 min 2 min 0 W/m 19,3 km/h (3 Bft) 95,74 %
19.11.2020 04:38 10,5 C 8,9 C 7,2 C 74 % 1018,0 hPa 0,0 l/m 0 min 2 min 0 W/m 16,1 km/h (3 Bft) 93,62 %
19.11.2020 04:40 10,5 C 8,9 C 7,2 C 75 % 1018,1 hPa 0,0 l/m 0 min 2 min 0 W/m 22,5 km/h (4 Bft) 97,14 %
19.11.2020 04:42 10,5 C 8,9 C 7,2 C 75 % 1018,1 hPa 0,0 l/m 0 min 2 min 0 W/m 25,7 km/h (4 Bft) 95,74 %
19.11.2020 04:44 10,4 C 8,3 C 7,2 C 75 % 1018,0 hPa 0,0 l/m 0 min 2 min 0 W/m 19,3 km/h (3 Bft) 95,74 %
19.11.2020 04:46 10,4 C 8,3 C 7,2 C 75 % 1018,0 hPa 0,0 l/m 0 min 2 min 0 W/m 16,1 km/h (3 Bft) 97,87 %
19.11.2020 04:48 10,3 C 8,9 C 7,2 C 75 % 1017,9 hPa 0,0 l/m 0 min 2 min 0 W/m 25,7 km/h (4 Bft) 97,83 %
19.11.2020 04:50 10,3 C 8,9 C 7,2 C 74 % 1018,0 hPa 0,0 l/m 0 min 2 min 0 W/m 25,7 km/h (4 Bft) 97,87 %
19.11.2020 04:52 10,3 C 8,9 C 6,7 C 74 % 1017,9 hPa 0,0 l/m 0 min 2 min 0 W/m 6,4 km/h (2 Bft) 97,87 %
19.11.2020 04:54 10,2 C 8,9 C 7,2 C 74 % 1018,0 hPa 0,0 l/m 0 min 2 min 0 W/m 16,1 km/h (3 Bft) 95,74 %
19.11.2020 04:56 10,1 C 8,9 C 7,2 C 74 % 1018,1 hPa 0,0 l/m 0 min 2 min 0 W/m 6,4 km/h (2 Bft) 97,87 %
19.11.2020 04:58 10,1 C 8,9 C 7,8 C 74 % 1018,1 hPa 0,0 l/m 0 min 2 min 0 W/m 16,1 km/h (3 Bft) 97,87 %
19.11.2020 05:00 10,1 C 8,9 C 7,8 C 74 % 1018,1 hPa 0,0 l/m 0 min 2 min 0 W/m 25,7 km/h (4 Bft) 97,83 %
19.11.2020 05:02 10,0 C 9,4 C 7,8 C 73 % 1018,2 hPa 0,0 l/m 0 min 2 min 0 W/m 22,5 km/h (4 Bft) 97,87 %
19.11.2020 05:04 10,0 C 9,4 C 7,8 C 74 % 1018,0 hPa 0,0 l/m 0 min 2 min 0 W/m 3,2 km/h (1 Bft) 95,74 %
19.11.2020 05:06 10,0 C 9,4 C 7,8 C 74 % 1018,2 hPa 0,0 l/m 0 min 2 min 0 W/m 12,9 km/h (3 Bft) 93,62 %
19.11.2020 05:08 10,0 C 9,4 C 7,8 C 75 % 1018,2 hPa 0,0 l/m 0 min 2 min 0 W/m 22,5 km/h (4 Bft) 95,74 %
19.11.2020 05:10 10,0 C 9,4 C 7,8 C 75 % 1018,2 hPa 0,0 l/m 0 min 2 min 0 W/m 19,3 km/h (3 Bft) 97,87 %
19.11.2020 05:12 10,0 C 9,4 C 7,8 C 76 % 1018,2 hPa 0,0 l/m 0 min 0 min 0 W/m 16,1 km/h (3 Bft) 97,83 %
19.11.2020 05:14 10,0 C 8,9 C 7,8 C 77 % 1018,2 hPa 0,0 l/m 0 min 2 min 0 W/m 12,9 km/h (3 Bft) 93,62 %
19.11.2020 05:16 10,0 C 8,9 C 7,8 C 77 % 1018,3 hPa 0,0 l/m 0 min 2 min 0 W/m 12,9 km/h (3 Bft) 95,74 %
19.11.2020 05:18 10,0 C 8,9 C 7,2 C 78 % 1018,3 hPa 0,0 l/m 0 min 2 min 0 W/m 3,2 km/h (1 Bft) 95,74 %
19.11.2020 05:20 10,0 C 8,9 C 7,2 C 79 % 1018,3 hPa 0,0 l/m 0 min 0 min 0 W/m 16,1 km/h (3 Bft) 97,87 %
19.11.2020 05:22 10,0 C 8,9 C 7,2 C 79 % 1018,3 hPa 0,0 l/m 0 min 0 min 0 W/m 12,9 km/h (3 Bft) 97,87 %
19.11.2020 05:24 9,9 C 8,9 C 7,2 C 80 % 1018,3 hPa 0,0 l/m 0 min 0 min 0 W/m 3,2 km/h (1 Bft) 97,83 %
19.11.2020 05:26 9,9 C 8,9 C 7,2 C 80 % 1018,3 hPa 0,0 l/m 0 min 0 min 0 W/m 12,9 km/h (3 Bft) 97,87 %
19.11.2020 05:28 9,9 C 8,9 C 7,8 C 80 % 1018,3 hPa 0,0 l/m 0 min 0 min 0 W/m 16,1 km/h (3 Bft) 97,87 %
19.11.2020 05:30 9,9 C 8,9 C 7,8 C 80 % 1018,3 hPa 0,0 l/m 0 min 0 min 0 W/m 3,2 km/h (1 Bft) 97,87 %
19.11.2020 05:32 9,9 C 9,4 C 7,8 C 81 % 1018,4 hPa 0,0 l/m 0 min 0 min 0 W/m 22,5 km/h (4 Bft) 95,74 %
19.11.2020 05:34 9,8 C 9,4 C 7,8 C 80 % 1018,3 hPa 0,0 l/m 0 min 0 min 0 W/m 25,7 km/h (4 Bft) 97,83 %
19.11.2020 05:36 9,8 C 9,4 C 7,8 C 80 % 1018,3 hPa 0,0 l/m 0 min 0 min 0 W/m 32,2 km/h (5 Bft) 97,87 %
19.11.2020 05:38 9,8 C 9,4 C 7,8 C 80 % 1018,4 hPa 0,0 l/m 0 min 0 min 0 W/m 29,0 km/h (5 Bft) 97,87 %
19.11.2020 05:40 9,8 C 9,4 C 7,8 C 80 % 1018,4 hPa 0,0 l/m 0 min 0 min 0 W/m 19,3 km/h (3 Bft) 97,87 %
19.11.2020 05:42 9,8 C 9,4 C 7,8 C 80 % 1018,3 hPa 0,0 l/m 0 min 0 min 0 W/m 19,3 km/h (3 Bft) 97,87 %
19.11.2020 05:44 9,8 C 9,4 C 7,8 C 79 % 1018,3 hPa 0,0 l/m 0 min 0 min 0 W/m 29,0 km/h (5 Bft) 95,74 %
19.11.2020 05:46 9,8 C 9,4 C 7,8 C 79 % 1018,2 hPa 0,0 l/m 0 min 0 min 0 W/m 22,5 km/h (4 Bft) 95,65 %
19.11.2020 05:48 9,8 C 9,4 C 7,8 C 79 % 1018,3 hPa 0,0 l/m 0 min 0 min 0 W/m 35,4 km/h (5 Bft) 97,87 %
19.11.2020 05:50 9,8 C 9,4 C 7,8 C 79 % 1018,3 hPa 0,0 l/m 0 min 0 min 0 W/m 25,7 km/h (4 Bft) 97,87 %
19.11.2020 05:52 9,8 C 9,4 C 7,8 C 79 % 1018,3 hPa 0,0 l/m 0 min 0 min 0 W/m 19,3 km/h (3 Bft) 97,87 %
19.11.2020 05:54 9,8 C 9,4 C 7,8 C 79 % 1018,1 hPa 0,0 l/m 0 min 0 min 0 W/m 29,0 km/h (5 Bft) 97,87 %
19.11.2020 05:56 9,9 C 9,4 C 7,8 C 79 % 1018,2 hPa 0,0 l/m 0 min 0 min 0 W/m 29,0 km/h (5 Bft) 95,74 %
19.11.2020 05:58 9,8 C 9,4 C 7,8 C 79 % 1018,3 hPa 0,0 l/m 0 min 0 min 0 W/m 25,7 km/h (4 Bft) 97,83 %
19.11.2020 06:00 9,9 C 9,4 C 7,8 C 79 % 1018,5 hPa 0,0 l/m 0 min 0 min 0 W/m 22,5 km/h (4 Bft) 97,87 %
19.11.2020 06:02 9,9 C 9,4 C 7,8 C 79 % 1018,4 hPa 0,0 l/m 0 min 0 min 0 W/m 16,1 km/h (3 Bft) 97,87 %
19.11.2020 06:04 9,9 C 9,4 C 7,8 C 79 % 1018,3 hPa 0,0 l/m 0 min 0 min 0 W/m 41,8 km/h (6 Bft) 95,74 %
19.11.2020 06:08 9,9 C 9,4 C 7,8 C 79 % 1018,3 hPa 0,0 l/m 0 min 0 min 0 W/m 38,6 km/h (5 Bft) 98,94 %
19.11.2020 06:10 9,9 C 9,4 C 7,8 C 79 % 1018,4 hPa 0,0 l/m 0 min 0 min 0 W/m 25,7 km/h (4 Bft) 100,00 %
19.11.2020 06:12 9,9 C 9,4 C 7,8 C 79 % 1018,4 hPa 0,0 l/m 0 min 0 min 0 W/m 25,7 km/h (4 Bft) 100,00 %
19.11.2020 06:14 9,8 C 9,4 C 7,8 C 79 % 1018,4 hPa 0,0 l/m 0 min 0 min 0 W/m 29,0 km/h (5 Bft) 100,00 %
19.11.2020 06:16 9,8 C 9,4 C 7,8 C 79 % 1018,4 hPa 0,0 l/m 0 min 0 min 0 W/m 29,0 km/h (5 Bft) 100,00 %
19.11.2020 06:18 9,8 C 9,4 C 7,8 C 79 % 1018,4 hPa 0,0 l/m 0 min 0 min 0 W/m 32,2 km/h (5 Bft) 100,00 %
19.11.2020 06:20 9,8 C 9,4 C 7,8 C 79 % 1018,5 hPa 0,0 l/m 0 min 0 min 0 W/m 29,0 km/h (5 Bft) 100,00 %
19.11.2020 06:22 9,8 C 8,9 C 7,8 C 79 % 1018,5 hPa 0,0 l/m 0 min 0 min 0 W/m 35,4 km/h (5 Bft) 100,00 %
19.11.2020 06:24 9,8 C 8,9 C 7,8 C 79 % 1018,7 hPa 0,0 l/m 0 min 0 min 0 W/m 32,2 km/h (5 Bft) 100,00 %
19.11.2020 06:26 9,8 C 8,9 C 7,8 C 79 % 1018,6 hPa 0,0 l/m 0 min 0 min 0 W/m 16,1 km/h (3 Bft) 100,00 %
19.11.2020 06:28 9,8 C 8,9 C 7,2 C 79 % 1018,5 hPa 0,0 l/m 0 min 0 min 0 W/m 19,3 km/h (3 Bft) 100,00 %
19.11.2020 06:30 9,8 C 8,9 C 7,2 C 79 % 1018,5 hPa 0,0 l/m 0 min 0 min 0 W/m 29,0 km/h (5 Bft) 100,00 %
19.11.2020 06:32 9,7 C 8,9 C 7,2 C 79 % 1018,6 hPa 0,0 l/m 0 min 0 min 0 W/m 19,3 km/h (3 Bft) 100,00 %
19.11.2020 06:34 9,7 C 8,9 C 7,2 C 79 % 1018,6 hPa 0,0 l/m 0 min 0 min 0 W/m 16,1 km/h (3 Bft) 100,00 %
19.11.2020 06:36 9,6 C 8,9 C 7,2 C 79 % 1018,6 hPa 0,0 l/m 0 min 0 min 0 W/m 12,9 km/h (3 Bft) 97,87 %
19.11.2020 06:38 9,6 C 8,9 C 7,2 C 79 % 1018,6 hPa 0,0 l/m 0 min 0 min 0 W/m 12,9 km/h (3 Bft) 100,00 %
19.11.2020 06:40 9,6 C 8,9 C 7,2 C 79 % 1018,6 hPa 0,0 l/m 0 min 0 min 0 W/m 22,5 km/h (4 Bft) 100,00 %
19.11.2020 06:42 9,6 C 8,9 C 7,2 C 79 % 1018,7 hPa 0,0 l/m 0 min 0 min 0 W/m 12,9 km/h (3 Bft) 97,87 %
19.11.2020 06:44 9,5 C 8,9 C 7,2 C 79 % 1018,7 hPa 0,0 l/m 0 min 0 min 0 W/m 6,4 km/h (2 Bft) 97,87 %
19.11.2020 06:46 9,5 C 8,9 C 7,2 C 79 % 1018,7 hPa 0,0 l/m 0 min 0 min 0 W/m 32,2 km/h (5 Bft) 97,87 %
19.11.2020 06:48 9,5 C 8,9 C 7,2 C 79 % 1018,7 hPa 0,0 l/m 0 min 0 min 0 W/m 25,7 km/h (4 Bft) 97,83 %
19.11.2020 06:50 9,5 C 8,3 C 7,2 C 79 % 1018,7 hPa 0,0 l/m 0 min 0 min 0 W/m 22,5 km/h (4 Bft) 97,87 %
19.11.2020 06:52 9,5 C 8,3 C 7,2 C 80 % 1018,7 hPa 0,0 l/m 0 min 0 min 0 W/m 29,0 km/h (5 Bft) 97,87 %
19.11.2020 06:54 9,4 C 8,3 C 7,2 C 80 % 1018,7 hPa 0,0 l/m 0 min 0 min 0 W/m 22,5 km/h (4 Bft) 97,87 %
19.11.2020 06:56 9,4 C 8,3 C 7,2 C 80 % 1018,7 hPa 0,0 l/m 0 min 0 min 0 W/m 9,7 km/h (2 Bft) 95,74 %
19.11.2020 06:58 9,4 C 8,3 C 7,2 C 80 % 1018,7 hPa 0,0 l/m 0 min 0 min 0 W/m 19,3 km/h (3 Bft) 95,74 %
19.11.2020 07:00 9,4 C 8,3 C 7,2 C 80 % 1018,8 hPa 0,0 l/m 0 min 0 min 0 W/m 22,5 km/h (4 Bft) 97,83 %
19.11.2020 07:02 9,3 C 8,3 C 7,2 C 80 % 1018,8 hPa 0,0 l/m 0 min 0 min 0 W/m 25,7 km/h (4 Bft) 93,62 %
19.11.2020 07:04 9,3 C 8,3 C 7,2 C 80 % 1018,7 hPa 0,0 l/m 0 min 0 min 0 W/m 12,9 km/h (3 Bft) 97,87 %
19.11.2020 07:06 9,3 C 8,3 C 7,2 C 80 % 1018,8 hPa 0,0 l/m 0 min 0 min 0 W/m 9,7 km/h (2 Bft) 97,87 %
19.11.2020 07:08 9,3 C 8,3 C 7,2 C 80 % 1018,9 hPa 0,0 l/m 0 min 0 min 0 W/m 12,9 km/h (3 Bft) 97,87 %
19.11.2020 07:10 9,2 C 8,3 C 7,2 C 80 % 1018,7 hPa 0,0 l/m 0 min 0 min 0 W/m 12,9 km/h (3 Bft) 97,87 %
19.11.2020 07:12 9,2 C 8,3 C 7,2 C 80 % 1018,8 hPa 0,0 l/m 0 min 0 min 0 W/m 35,4 km/h (5 Bft) 97,83 %
19.11.2020 07:14 9,2 C 8,3 C 7,2 C 80 % 1018,8 hPa 0,0 l/m 0 min 0 min 0 W/m 19,3 km/h (3 Bft) 97,87 %
19.11.2020 07:16 9,1 C 8,3 C 6,7 C 80 % 1018,8 hPa 0,0 l/m 0 min 0 min 0 W/m 22,5 km/h (4 Bft) 95,74 %
19.11.2020 07:18 9,1 C 8,3 C 6,7 C 80 % 1018,7 hPa 0,0 l/m 0 min 0 min 0 W/m 22,5 km/h (4 Bft) 97,87 %
19.11.2020 07:20 9,1 C 8,3 C 6,7 C 80 % 1018,7 hPa 0,0 l/m 0 min 0 min 0 W/m 16,1 km/h (3 Bft) 97,87 %
19.11.2020 07:22 9,1 C 8,3 C 6,7 C 80 % 1018,7 hPa 0,0 l/m 0 min 0 min 0 W/m 19,3 km/h (3 Bft) 97,83 %
19.11.2020 07:24 9,0 C 8,3 C 6,7 C 80 % 1018,8 hPa 0,0 l/m 0 min 0 min 0 W/m 6,4 km/h (2 Bft) 97,87 %
19.11.2020 07:26 9,0 C 8,3 C 6,7 C 80 % 1018,7 hPa 0,0 l/m 0 min 0 min 0 W/m 29,0 km/h (5 Bft) 97,87 %
19.11.2020 07:28 9,0 C 8,3 C 6,7 C 81 % 1018,8 hPa 0,0 l/m 0 min 0 min 0 W/m 25,7 km/h (4 Bft) 97,87 %
19.11.2020 07:30 9,0 C 8,3 C 6,7 C 81 % 1018,8 hPa 0,0 l/m 0 min 0 min 0 W/m 22,5 km/h (4 Bft) 95,74 %
19.11.2020 07:32 9,0 C 8,3 C 6,7 C 81 % 1018,8 hPa 0,0 l/m 0 min 0 min 0 W/m 22,5 km/h (4 Bft) 97,87 %
19.11.2020 07:34 9,0 C 8,3 C 6,7 C 80 % 1018,8 hPa 0,0 l/m 0 min 0 min 0 W/m 16,1 km/h (3 Bft) 97,83 %
19.11.2020 07:36 8,9 C 8,3 C 6,7 C 80 % 1018,9 hPa 0,0 l/m 0 min 0 min 0 W/m 25,7 km/h (4 Bft) 100,00 %
19.11.2020 07:38 8,9 C 8,3 C 6,7 C 81 % 1018,9 hPa 0,0 l/m 0 min 0 min 0 W/m 19,3 km/h (3 Bft) 97,87 %
19.11.2020 07:40 8,9 C 8,3 C 6,7 C 81 % 1018,9 hPa 0,0 l/m 0 min 0 min 0 W/m 22,5 km/h (4 Bft) 100,00 %
19.11.2020 07:42 8,9 C 8,3 C 6,7 C 81 % 1018,9 hPa 0,0 l/m 0 min 0 min 0 W/m 16,1 km/h (3 Bft) 97,87 %
19.11.2020 07:44 8,9 C 8,3 C 6,7 C 81 % 1019,0 hPa 0,0 l/m 0 min 0 min 0 W/m 29,0 km/h (5 Bft) 100,00 %
19.11.2020 07:46 8,9 C 8,3 C 6,7 C 81 % 1019,0 hPa 0,0 l/m 0 min 0 min 0 W/m 22,5 km/h (4 Bft) 100,00 %
19.11.2020 07:48 8,9 C 8,3 C 6,7 C 81 % 1019,0 hPa 0,0 l/m 0 min 0 min 0 W/m 29,0 km/h (5 Bft) 97,87 %
19.11.2020 07:50 8,9 C 8,3 C 7,2 C 81 % 1019,0 hPa 0,0 l/m 0 min 0 min 0 W/m 29,0 km/h (5 Bft) 97,87 %
19.11.2020 07:52 8,9 C 8,3 C 6,7 C 81 % 1019,0 hPa 0,0 l/m 0 min 0 min 0 W/m 19,3 km/h (3 Bft) 95,74 %
19.11.2020 07:54 8,9 C 8,3 C 7,2 C 81 % 1019,0 hPa 0,0 l/m 0 min 0 min 0 W/m 35,4 km/h (5 Bft) 100,00 %
19.11.2020 07:56 8,9 C 8,3 C 7,2 C 81 % 1019,0 hPa 0,0 l/m 0 min 0 min 0 W/m 29,0 km/h (5 Bft) 100,00 %
19.11.2020 07:58 8,9 C 8,3 C 7,2 C 82 % 1019,1 hPa 0,0 l/m 0 min 0 min 0 W/m 19,3 km/h (3 Bft) 97,62 %
19.11.2020 08:00 9,0 C 8,3 C 7,2 C 82 % 1019,1 hPa 0,0 l/m 0 min 0 min 0 W/m 19,3 km/h (3 Bft) 100,00 %
19.11.2020 08:02 9,0 C 8,3 C 7,2 C 82 % 1019,0 hPa 0,0 l/m 0 min 0 min 0 W/m 22,5 km/h (4 Bft) 91,49 %
19.11.2020 08:04 9,0 C 8,3 C 6,7 C 82 % 1019,1 hPa 0,0 l/m 0 min 0 min 0 W/m 6,4 km/h (2 Bft) 95,65 %
19.11.2020 08:06 9,0 C 8,3 C 6,7 C 82 % 1019,1 hPa 0,0 l/m 0 min 0 min 0 W/m 16,1 km/h (3 Bft) 95,74 %
19.11.2020 08:08 8,9 C 8,3 C 6,7 C 82 % 1019,0 hPa 0,0 l/m 0 min 0 min 3 W/m 16,1 km/h (3 Bft) 95,74 %
19.11.2020 08:10 8,9 C 8,3 C 6,7 C 82 % 1019,1 hPa 0,0 l/m 0 min 0 min 5 W/m 16,1 km/h (3 Bft) 96,30 %
19.11.2020 08:12 8,9 C 8,3 C 6,7 C 82 % 1019,1 hPa 0,0 l/m 0 min 0 min 6 W/m 12,9 km/h (3 Bft) 95,74 %
19.11.2020 08:14 8,9 C 8,3 C 6,7 C 83 % 1019,1 hPa 0,0 l/m 0 min 0 min 9 W/m 25,7 km/h (4 Bft) 97,87 %
19.11.2020 08:16 8,9 C 8,3 C 6,7 C 83 % 1019,1 hPa 0,0 l/m 0 min 0 min 11 W/m 22,5 km/h (4 Bft) 95,74 %
19.11.2020 08:18 8,9 C 8,3 C 6,7 C 83 % 1019,1 hPa 0,0 l/m 0 min 0 min 11 W/m 22,5 km/h (4 Bft) 95,74 %
19.11.2020 08:20 8,9 C 8,3 C 7,2 C 83 % 1019,2 hPa 0,0 l/m 0 min 0 min 11 W/m 32,2 km/h (5 Bft) 97,83 %
19.11.2020 08:22 8,9 C 8,3 C 7,2 C 84 % 1019,1 hPa 0,0 l/m 0 min 0 min 12 W/m 29,0 km/h (5 Bft) 93,62 %
19.11.2020 08:24 8,9 C 8,3 C 7,2 C 84 % 1019,2 hPa 0,0 l/m 0 min 0 min 12 W/m 41,8 km/h (6 Bft) 93,62 %
19.11.2020 08:26 8,9 C 8,3 C 7,2 C 84 % 1019,2 hPa 0,0 l/m 0 min 0 min 11 W/m 32,2 km/h (5 Bft) 95,74 %
19.11.2020 08:28 8,9 C 8,3 C 7,2 C 84 % 1019,2 hPa 0,0 l/m 0 min 0 min 10 W/m 22,5 km/h (4 Bft) 95,74 %
19.11.2020 08:30 8,9 C 8,3 C 7,2 C 84 % 1019,2 hPa 0,0 l/m 0 min 0 min 11 W/m 29,0 km/h (5 Bft) 95,74 %
19.11.2020 08:32 8,9 C 8,3 C 7,2 C 84 % 1019,3 hPa 0,0 l/m 0 min 0 min 10 W/m 35,4 km/h (5 Bft) 95,65 %
19.11.2020 08:34 8,9 C 8,3 C 7,2 C 84 % 1019,2 hPa 0,0 l/m 0 min 0 min 7 W/m 25,7 km/h (4 Bft) 95,74 %
19.11.2020 08:36 8,9 C 8,3 C 7,2 C 84 % 1019,2 hPa 0,0 l/m 0 min 0 min 9 W/m 25,7 km/h (4 Bft) 95,74 %
19.11.2020 08:38 8,9 C 8,3 C 7,2 C 84 % 1019,2 hPa 0,0 l/m 0 min 0 min 12 W/m 29,0 km/h (5 Bft) 95,74 %
19.11.2020 08:40 8,9 C 8,3 C 7,2 C 84 % 1019,1 hPa 0,0 l/m 0 min 0 min 14 W/m 32,2 km/h (5 Bft) 94,74 %
19.11.2020 08:42 8,9 C 8,3 C 7,2 C 84 % 1019,1 hPa 0,0 l/m 0 min 0 min 16 W/m 38,6 km/h (5 Bft) 95,74 %
19.11.2020 08:44 8,9 C 8,3 C 7,2 C 84 % 1019,2 hPa 0,0 l/m 0 min 0 min 23 W/m 32,2 km/h (5 Bft) 95,74 %
19.11.2020 08:46 8,9 C 8,3 C 7,2 C 84 % 1019,1 hPa 0,0 l/m 0 min 0 min 13 W/m 38,6 km/h (5 Bft) 95,65 %
19.11.2020 08:48 9,0 C 8,3 C 7,2 C 84 % 1019,1 hPa 0,0 l/m 0 min 0 min 14 W/m 25,7 km/h (4 Bft) 95,74 %
19.11.2020 08:50 8,9 C 8,3 C 7,2 C 84 % 1019,0 hPa 0,0 l/m 0 min 0 min 14 W/m 41,8 km/h (6 Bft) 95,74 %
19.11.2020 08:52 9,0 C 8,3 C 7,2 C 84 % 1019,0 hPa 0,0 l/m 0 min 0 min 21 W/m 38,6 km/h (5 Bft) 97,87 %
19.11.2020 08:54 9,0 C 8,3 C 7,2 C 84 % 1019,1 hPa 0,0 l/m 0 min 0 min 22 W/m 32,2 km/h (5 Bft) 97,87 %
19.11.2020 08:56 9,0 C 8,3 C 7,2 C 84 % 1019,2 hPa 0,0 l/m 0 min 0 min 24 W/m 38,6 km/h (5 Bft) 97,87 %
19.11.2020 08:58 9,0 C 8,3 C 7,2 C 84 % 1019,1 hPa 0,0 l/m 0 min 0 min 26 W/m 19,3 km/h (3 Bft) 97,83 %
19.11.2020 09:00 9,0 C 8,3 C 7,2 C 84 % 1019,1 hPa 0,0 l/m 0 min 0 min 25 W/m 25,7 km/h (4 Bft) 97,87 %
19.11.2020 09:02 9,0 C 8,3 C 7,2 C 84 % 1019,2 hPa 0,0 l/m 0 min 0 min 19 W/m 38,6 km/h (5 Bft) 97,87 %
19.11.2020 09:04 9,0 C 8,3 C 7,2 C 84 % 1019,1 hPa 0,0 l/m 0 min 0 min 17 W/m 32,2 km/h (5 Bft) 97,87 %
19.11.2020 09:06 9,1 C 8,9 C 7,2 C 84 % 1019,1 hPa 0,0 l/m 0 min 0 min 30 W/m 41,8 km/h (6 Bft) 97,87 %
19.11.2020 09:08 9,1 C 8,9 C 7,8 C 84 % 1019,2 hPa 0,0 l/m 0 min 0 min 36 W/m 25,7 km/h (4 Bft) 97,87 %
19.11.2020 09:10 9,1 C 8,9 C 7,8 C 84 % 1019,2 hPa 0,0 l/m 0 min 0 min 40 W/m 38,6 km/h (5 Bft) 100,00 %
19.11.2020 09:12 9,1 C 8,9 C 7,8 C 84 % 1019,3 hPa 0,0 l/m 0 min 0 min 39 W/m 41,8 km/h (6 Bft) 95,74 %
19.11.2020 09:14 9,2 C 8,9 C 7,8 C 83 % 1019,2 hPa 0,0 l/m 0 min 0 min 36 W/m 38,6 km/h (5 Bft) 100,00 %
19.11.2020 09:16 9,3 C 8,9 C 7,8 C 84 % 1019,2 hPa 0,0 l/m 0 min 0 min 24 W/m 19,3 km/h (3 Bft) 100,00 %
19.11.2020 09:18 9,3 C 8,9 C 7,8 C 84 % 1019,2 hPa 0,0 l/m 0 min 0 min 35 W/m 45,1 km/h (6 Bft) 97,87 %
19.11.2020 09:20 9,3 C 8,9 C 7,8 C 84 % 1019,1 hPa 0,0 l/m 0 min 0 min 44 W/m 41,8 km/h (6 Bft) 97,83 %
19.11.2020 09:22 9,3 C 8,9 C 7,8 C 84 % 1019,2 hPa 0,0 l/m 0 min 0 min 50 W/m 25,7 km/h (4 Bft) 100,00 %
19.11.2020 09:24 9,3 C 8,9 C 7,8 C 84 % 1019,1 hPa 0,0 l/m 0 min 0 min 48 W/m 32,2 km/h (5 Bft) 100,00 %
19.11.2020 09:26 9,4 C 8,9 C 7,8 C 83 % 1019,2 hPa 0,0 l/m 0 min 0 min 41 W/m 45,1 km/h (6 Bft) 95,74 %
19.11.2020 09:28 9,4 C 8,9 C 7,8 C 83 % 1019,1 hPa 0,0 l/m 0 min 0 min 43 W/m 22,5 km/h (4 Bft) 100,00 %
19.11.2020 09:30 9,4 C 8,9 C 7,8 C 83 % 1019,2 hPa 0,0 l/m 0 min 0 min 31 W/m 22,5 km/h (4 Bft) 97,87 %
19.11.2020 09:32 9,4 C 8,9 C 7,8 C 83 % 1019,2 hPa 0,0 l/m 0 min 0 min 23 W/m 32,2 km/h (5 Bft) 44,74 %
19.11.2020 09:34 9,4 C 8,9 C 7,8 C 83 % 1019,2 hPa 0,0 l/m 0 min 0 min 35 W/m 29,0 km/h (5 Bft) 97,87 %
19.11.2020 09:36 9,4 C 8,9 C 7,8 C 83 % 1019,2 hPa 0,0 l/m 0 min 0 min 43 W/m 12,9 km/h (3 Bft) 95,74 %
19.11.2020 09:38 9,4 C 8,9 C 7,8 C 83 % 1019,2 hPa 0,0 l/m 0 min 0 min 45 W/m 35,4 km/h (5 Bft) 95,74 %
19.11.2020 09:40 9,5 C 8,9 C 7,8 C 83 % 1019,2 hPa 0,0 l/m 0 min 0 min 44 W/m 22,5 km/h (4 Bft) 97,87 %
19.11.2020 09:42 9,5 C 8,9 C 7,8 C 83 % 1019,3 hPa 0,0 l/m 0 min 0 min 49 W/m 45,1 km/h (6 Bft) 95,74 %
19.11.2020 09:44 9,5 C 8,9 C 7,8 C 83 % 1019,3 hPa 0,0 l/m 0 min 0 min 50 W/m 32,2 km/h (5 Bft) 95,65 %
19.11.2020 09:46 9,5 C 8,9 C 7,8 C 83 % 1019,3 hPa 0,0 l/m 0 min 0 min 47 W/m 41,8 km/h (6 Bft) 97,87 %
19.11.2020 09:48 9,5 C 8,9 C 7,8 C 83 % 1019,4 hPa 0,0 l/m 0 min 0 min 48 W/m 29,0 km/h (5 Bft) 97,87 %
19.11.2020 09:50 9,5 C 8,9 C 7,8 C 83 % 1019,3 hPa 0,0 l/m 0 min 0 min 48 W/m 35,4 km/h (5 Bft) 95,74 %
19.11.2020 09:52 9,5 C 8,9 C 7,8 C 83 % 1019,3 hPa 0,0 l/m 0 min 0 min 48 W/m 32,2 km/h (5 Bft) 97,87 %
19.11.2020 09:54 9,6 C 8,9 C 7,8 C 83 % 1019,3 hPa 0,0 l/m 0 min 0 min 47 W/m 16,1 km/h (3 Bft) 95,74 %
19.11.2020 09:56 9,5 C 8,9 C 7,8 C 84 % 1019,3 hPa 0,0 l/m 0 min 0 min 51 W/m 19,3 km/h (3 Bft) 97,83 %
19.11.2020 09:58 9,6 C 8,9 C 7,8 C 84 % 1019,3 hPa 0,0 l/m 0 min 0 min 58 W/m 29,0 km/h (5 Bft) 97,87 %
19.11.2020 10:00 9,6 C 9,4 C 7,8 C 83 % 1019,4 hPa 0,0 l/m 0 min 0 min 64 W/m 22,5 km/h (4 Bft) 97,87 %
19.11.2020 10:02 9,6 C 9,4 C 8,4 C 84 % 1019,5 hPa 0,0 l/m 0 min 0 min 63 W/m 29,0 km/h (5 Bft) 97,87 %
19.11.2020 10:05 9,6 C 9,4 C 8,4 C 84 % 1019,5 hPa 0,0 l/m 0 min 0 min 58 W/m 35,4 km/h (5 Bft) 97,56 %
19.11.2020 10:06 9,6 C 9,4 C 8,4 C 84 % 1019,5 hPa 0,0 l/m 0 min 0 min 57 W/m 22,5 km/h (4 Bft) 100,00 %
19.11.2020 10:08 9,6 C 9,4 C 8,4 C 83 % 1019,5 hPa 0,0 l/m 0 min 0 min 71 W/m 54,7 km/h (7 Bft) 97,87 %
19.11.2020 10:10 9,6 C 9,4 C 8,4 C 83 % 1019,4 hPa 0,0 l/m 0 min 0 min 70 W/m 22,5 km/h (4 Bft) 95,74 %
19.11.2020 10:12 9,6 C 9,4 C 8,4 C 83 % 1019,5 hPa 0,0 l/m 0 min 0 min 57 W/m 38,6 km/h (5 Bft) 97,83 %
19.11.2020 10:14 9,6 C 9,4 C 8,4 C 83 % 1019,5 hPa 0,0 l/m 0 min 0 min 45 W/m 32,2 km/h (5 Bft) 97,87 %
19.11.2020 10:16 9,6 C 9,4 C 8,4 C 83 % 1019,5 hPa 0,0 l/m 0 min 0 min 66 W/m 19,3 km/h (3 Bft) 97,87 %
19.11.2020 10:18 9,6 C 9,4 C 8,4 C 83 % 1019,5 hPa 0,0 l/m 0 min 0 min 86 W/m 35,4 km/h (5 Bft) 97,87 %
19.11.2020 10:20 9,7 C 9,4 C 8,4 C 83 % 1019,5 hPa 0,0 l/m 0 min 0 min 70 W/m 25,7 km/h (4 Bft) 95,74 %
19.11.2020 10:22 9,7 C 9,4 C 8,4 C 83 % 1019,5 hPa 0,0 l/m 0 min 0 min 65 W/m 35,4 km/h (5 Bft) 100,00 %
19.11.2020 10:24 9,7 C 9,4 C 8,4 C 83 % 1019,6 hPa 0,0 l/m 0 min 0 min 72 W/m 19,3 km/h (3 Bft) 100,00 %
19.11.2020 10:26 9,7 C 9,4 C 8,4 C 83 % 1019,6 hPa 0,0 l/m 0 min 0 min 74 W/m 22,5 km/h (4 Bft) 97,87 %
19.11.2020 10:28 9,7 C 9,4 C 8,4 C 83 % 1019,7 hPa 0,0 l/m 0 min 0 min 79 W/m 16,1 km/h (3 Bft) 100,00 %
19.11.2020 10:30 9,8 C 9,4 C 8,4 C 83 % 1019,7 hPa 0,0 l/m 0 min 0 min 67 W/m 32,2 km/h (5 Bft) 100,00 %
19.11.2020 10:32 9,8 C 9,4 C 8,4 C 83 % 1019,7 hPa 0,0 l/m 0 min 0 min 76 W/m 22,5 km/h (4 Bft) 100,00 %
19.11.2020 10:34 9,8 C 9,4 C 8,4 C 83 % 1019,7 hPa 0,0 l/m 0 min 0 min 105 W/m 12,9 km/h (3 Bft) 100,00 %
19.11.2020 10:36 9,8 C 9,4 C 8,4 C 83 % 1019,7 hPa 0,0 l/m 0 min 0 min 134 W/m 22,5 km/h (4 Bft) 97,83 %
19.11.2020 10:38 9,8 C 9,4 C 8,9 C 83 % 1019,9 hPa 0,0 l/m 0 min 0 min 107 W/m 16,1 km/h (3 Bft) 97,87 %
19.11.2020 10:40 9,9 C 9,4 C 8,4 C 83 % 1020,0 hPa 0,0 l/m 0 min 0 min 85 W/m 25,7 km/h (4 Bft) 100,00 %
19.11.2020 10:42 9,9 C 9,4 C 8,4 C 83 % 1019,9 hPa 0,0 l/m 0 min 0 min 80 W/m 19,3 km/h (3 Bft) 100,00 %
19.11.2020 10:44 9,9 C 9,4 C 8,4 C 83 % 1020,0 hPa 0,0 l/m 0 min 0 min 73 W/m 9,7 km/h (2 Bft) 97,87 %
19.11.2020 10:46 9,9 C 9,4 C 8,4 C 83 % 1020,0 hPa 0,0 l/m 0 min 0 min 58 W/m 16,1 km/h (3 Bft) 97,87 %
19.11.2020 10:48 9,9 C 9,4 C 8,4 C 83 % 1020,0 hPa 0,0 l/m 0 min 0 min 60 W/m 29,0 km/h (5 Bft) 100,00 %
19.11.2020 10:50 9,9 C 9,4 C 8,4 C 83 % 1020,1 hPa 0,0 l/m 0 min 0 min 60 W/m 41,8 km/h (6 Bft) 100,00 %
19.11.2020 10:52 9,9 C 9,4 C 8,4 C 83 % 1020,1 hPa 0,0 l/m 0 min 0 min 61 W/m 16,1 km/h (3 Bft) 95,74 %
19.11.2020 10:54 10,0 C 9,4 C 8,4 C 83 % 1020,1 hPa 0,0 l/m 0 min 0 min 54 W/m 25,7 km/h (4 Bft) 97,87 %
19.11.2020 10:56 10,0 C 9,4 C 8,4 C 83 % 1020,2 hPa 0,0 l/m 0 min 0 min 53 W/m 38,6 km/h (5 Bft) 97,87 %
19.11.2020 11:00 10,0 C 9,4 C 8,4 C 83 % 1020,2 hPa 0,0 l/m 0 min 0 min 69 W/m 6,4 km/h (2 Bft) 97,67 %
19.11.2020 11:02 10,0 C 9,4 C 8,4 C 83 % 1020,3 hPa 0,0 l/m 0 min 0 min 58 W/m 19,3 km/h (3 Bft) 97,83 %
19.11.2020 11:04 10,0 C 8,9 C 7,8 C 83 % 1020,3 hPa 0,0 l/m 0 min 2 min 55 W/m 22,5 km/h (4 Bft) 97,87 %
19.11.2020 11:06 10,0 C 8,9 C 7,2 C 84 % 1020,5 hPa 0,0 l/m 0 min 0 min 45 W/m 12,9 km/h (3 Bft) 97,87 %
19.11.2020 11:08 10,0 C 7,8 C 6,7 C 84 % 1020,4 hPa 0,0 l/m 0 min 2 min 41 W/m 16,1 km/h (3 Bft) 95,74 %
19.11.2020 11:10 9,9 C 7,2 C 6,7 C 84 % 1020,4 hPa 0,2 l/m 0 min 2 min 50 W/m 22,5 km/h (4 Bft) 97,87 %
19.11.2020 11:12 9,9 C 7,2 C 6,7 C 85 % 1020,4 hPa 0,0 l/m 0 min 2 min 61 W/m 41,8 km/h (6 Bft) 97,87 %
19.11.2020 11:14 9,9 C 7,2 C 6,7 C 85 % 1020,5 hPa 0,0 l/m 0 min 2 min 57 W/m 19,3 km/h (3 Bft) 97,83 %
19.11.2020 11:16 9,8 C 7,2 C 6,7 C 85 % 1020,5 hPa 0,0 l/m 0 min 0 min 47 W/m 25,7 km/h (4 Bft) 100,00 %
19.11.2020 11:18 9,8 C 7,8 C 6,7 C 86 % 1020,5 hPa 0,0 l/m 0 min 2 min 44 W/m 12,9 km/h (3 Bft) 95,74 %
19.11.2020 11:20 9,7 C 7,8 C 6,7 C 86 % 1020,6 hPa 0,0 l/m 0 min 2 min 48 W/m 25,7 km/h (4 Bft) 97,87 %
19.11.2020 11:22 9,6 C 7,8 C 6,7 C 86 % 1020,6 hPa 0,0 l/m 0 min 0 min 52 W/m 29,0 km/h (5 Bft) 93,48 %
19.11.2020 11:24 9,6 C 7,8 C 6,7 C 87 % 1020,6 hPa 0,0 l/m 0 min 0 min 64 W/m 19,3 km/h (3 Bft) 95,74 %
19.11.2020 11:26 9,6 C 7,8 C 7,2 C 87 % 1020,7 hPa 0,0 l/m 0 min 0 min 83 W/m 19,3 km/h (3 Bft) 91,49 %
19.11.2020 11:28 9,6 C 8,3 C 7,2 C 88 % 1020,7 hPa 0,0 l/m 0 min 0 min 87 W/m 19,3 km/h (3 Bft) 60,00 %
19.11.2020 11:30 9,5 C 8,3 C 7,2 C 88 % 1020,6 hPa 0,0 l/m 0 min 0 min 80 W/m 16,1 km/h (3 Bft) 97,87 %
19.11.2020 11:32 9,5 C 8,3 C 7,2 C 88 % 1020,7 hPa 0,0 l/m 0 min 0 min 69 W/m 19,3 km/h (3 Bft) 97,87 %
19.11.2020 11:34 9,5 C 8,3 C 7,2 C 88 % 1020,7 hPa 0,0 l/m 0 min 0 min 84 W/m 22,5 km/h (4 Bft) 97,83 %
19.11.2020 11:36 9,5 C 8,9 C 7,8 C 88 % 1020,6 hPa 0,0 l/m 0 min 0 min 101 W/m 29,0 km/h (5 Bft) 97,87 %
19.11.2020 11:38 9,5 C 8,9 C 7,8 C 88 % 1020,7 hPa 0,0 l/m 0 min 0 min 110 W/m 22,5 km/h (4 Bft) 95,74 %
19.11.2020 11:40 9,5 C 8,9 C 7,8 C 88 % 1020,7 hPa 0,0 l/m 0 min 0 min 106 W/m 12,9 km/h (3 Bft) 94,55 %
19.11.2020 11:42 9,5 C 8,9 C 7,8 C 88 % 1020,7 hPa 0,0 l/m 0 min 0 min 87 W/m 12,9 km/h (3 Bft) 97,87 %
19.11.2020 11:44 9,5 C 8,9 C 7,8 C 88 % 1020,7 hPa 0,0 l/m 0 min 0 min 79 W/m 22,5 km/h (4 Bft) 97,87 %
19.11.2020 11:46 9,5 C 8,9 C 7,8 C 88 % 1020,8 hPa 0,0 l/m 0 min 0 min 88 W/m 25,7 km/h (4 Bft) 97,87 %
19.11.2020 11:48 9,5 C 8,9 C 7,8 C 88 % 1020,7 hPa 0,0 l/m 0 min 0 min 98 W/m 22,5 km/h (4 Bft) 97,83 %
19.11.2020 11:50 9,6 C 9,4 C 8,4 C 88 % 1020,7 hPa 0,0 l/m 0 min 0 min 105 W/m 29,0 km/h (5 Bft) 95,74 %
19.11.2020 11:52 9,6 C 9,4 C 8,4 C 88 % 1020,7 hPa 0,0 l/m 0 min 0 min 115 W/m 19,3 km/h (3 Bft) 93,62 %
19.11.2020 11:54 9,6 C 9,4 C 8,4 C 88 % 1020,7 hPa 0,0 l/m 0 min 0 min 111 W/m 32,2 km/h (5 Bft) 97,87 %
19.11.2020 11:56 9,7 C 9,4 C 8,4 C 88 % 1020,8 hPa 0,0 l/m 0 min 0 min 88 W/m 25,7 km/h (4 Bft) 97,87 %
19.11.2020 11:58 9,7 C 9,4 C 8,4 C 88 % 1020,8 hPa 0,0 l/m 0 min 0 min 70 W/m 16,1 km/h (3 Bft) 97,87 %
19.11.2020 12:00 9,7 C 9,4 C 8,4 C 88 % 1020,8 hPa 0,0 l/m 0 min 0 min 62 W/m 12,9 km/h (3 Bft) 97,83 %
19.11.2020 12:02 9,8 C 9,4 C 8,4 C 87 % 1020,9 hPa 0,0 l/m 0 min 0 min 62 W/m 19,3 km/h (3 Bft) 97,87 %
19.11.2020 12:04 9,8 C 9,4 C 8,4 C 87 % 1020,8 hPa 0,0 l/m 0 min 0 min 47 W/m 22,5 km/h (4 Bft) 97,87 %
19.11.2020 12:08 9,8 C 9,4 C 8,4 C 87 % 1020,9 hPa 0,0 l/m 0 min 0 min 38 W/m 25,7 km/h (4 Bft) 97,59 %
19.11.2020 12:10 9,8 C 9,4 C 8,4 C 87 % 1020,8 hPa 0,0 l/m 0 min 0 min 53 W/m 35,4 km/h (5 Bft) 97,87 %
19.11.2020 12:12 9,8 C 9,4 C 8,4 C 86 % 1020,8 hPa 0,0 l/m 0 min 0 min 66 W/m 25,7 km/h (4 Bft) 95,74 %
19.11.2020 12:14 9,9 C 9,4 C 8,4 C 86 % 1020,8 hPa 0,0 l/m 0 min 0 min 62 W/m 25,7 km/h (4 Bft) 97,87 %
19.11.2020 12:16 9,9 C 9,4 C 8,4 C 86 % 1020,8 hPa 0,0 l/m 0 min 0 min 73 W/m 12,9 km/h (3 Bft) 97,83 %
19.11.2020 12:18 9,9 C 9,4 C 8,4 C 86 % 1020,9 hPa 0,0 l/m 0 min 0 min 58 W/m 12,9 km/h (3 Bft) 98,00 %
19.11.2020 12:20 9,9 C 9,4 C 8,4 C 86 % 1020,8 hPa 0,0 l/m 0 min 0 min 53 W/m 25,7 km/h (4 Bft) 95,65 %
19.11.2020 12:22 9,9 C 9,4 C 8,4 C 85 % 1020,8 hPa 0,0 l/m 0 min 0 min 54 W/m 25,7 km/h (4 Bft) 93,62 %
19.11.2020 12:24 10,0 C 9,4 C 8,4 C 85 % 1020,9 hPa 0,0 l/m 0 min 0 min 39 W/m 32,2 km/h (5 Bft) 95,74 %
19.11.2020 12:26 10,0 C 9,4 C 8,4 C 85 % 1020,9 hPa 0,0 l/m 0 min 0 min 35 W/m 35,4 km/h (5 Bft) 95,74 %
19.11.2020 12:28 10,0 C 9,4 C 8,4 C 85 % 1020,9 hPa 0,0 l/m 0 min 0 min 39 W/m 29,0 km/h (5 Bft) 95,74 %
19.11.2020 12:30 10,0 C 9,4 C 8,4 C 85 % 1021,0 hPa 0,0 l/m 0 min 0 min 33 W/m 29,0 km/h (5 Bft) 93,62 %
19.11.2020 12:32 10,0 C 9,4 C 8,4 C 85 % 1021,0 hPa 0,0 l/m 0 min 0 min 29 W/m 29,0 km/h (5 Bft) 95,65 %
19.11.2020 12:34 10,0 C 9,4 C 8,4 C 85 % 1021,1 hPa 0,0 l/m 0 min 0 min 40 W/m 22,5 km/h (4 Bft) 93,62 %
19.11.2020 12:36 10,0 C 9,4 C 8,4 C 85 % 1021,1 hPa 0,0 l/m 0 min 0 min 50 W/m 19,3 km/h (3 Bft) 93,62 %
19.11.2020 12:38 10,0 C 9,4 C 8,4 C 85 % 1021,1 hPa 0,0 l/m 0 min 0 min 34 W/m 29,0 km/h (5 Bft) 96,36 %
19.11.2020 12:40 10,0 C 9,4 C 8,4 C 85 % 1021,1 hPa 0,0 l/m 0 min 0 min 43 W/m 32,2 km/h (5 Bft) 95,74 %
19.11.2020 12:42 10,0 C 9,4 C 8,4 C 85 % 1021,1 hPa 0,0 l/m 0 min 0 min 41 W/m 29,0 km/h (5 Bft) 93,62 %
19.11.2020 12:44 10,0 C 9,4 C 8,4 C 85 % 1021,2 hPa 0,0 l/m 0 min 0 min 25 W/m 3,2 km/h (1 Bft) 95,74 %
19.11.2020 12:46 10,0 C 9,4 C 7,8 C 85 % 1021,3 hPa 0,0 l/m 0 min 0 min 29 W/m 12,9 km/h (3 Bft) 97,83 %
19.11.2020 12:48 10,0 C 8,9 C 7,8 C 85 % 1021,3 hPa 0,0 l/m 0 min 0 min 25 W/m 19,3 km/h (3 Bft) 97,87 %
19.11.2020 12:50 10,0 C 8,3 C 7,2 C 85 % 1021,3 hPa 0,0 l/m 0 min 2 min 30 W/m 19,3 km/h (3 Bft) 95,74 %
19.11.2020 12:52 10,0 C 8,3 C 7,2 C 86 % 1021,2 hPa 0,0 l/m 0 min 2 min 46 W/m 29,0 km/h (5 Bft) 97,87 %
19.11.2020 12:54 10,0 C 8,3 C 7,2 C 86 % 1021,3 hPa 0,0 l/m 0 min 2 min 58 W/m 22,5 km/h (4 Bft) 97,87 %
19.11.2020 12:56 10,0 C 8,3 C 7,2 C 86 % 1021,3 hPa 0,0 l/m 0 min 0 min 58 W/m 29,0 km/h (5 Bft) 97,87 %
19.11.2020 12:58 9,9 C 8,3 C 7,2 C 86 % 1021,3 hPa 0,0 l/m 0 min 0 min 44 W/m 16,1 km/h (3 Bft) 97,83 %
19.11.2020 13:00 9,9 C 8,3 C 7,2 C 87 % 1021,3 hPa 0,0 l/m 0 min 2 min 42 W/m 19,3 km/h (3 Bft) 93,62 %
19.11.2020 13:02 9,9 C 7,8 C 7,2 C 87 % 1021,3 hPa 0,0 l/m 0 min 2 min 56 W/m 9,7 km/h (2 Bft) 97,56 %
19.11.2020 13:04 9,9 C 8,3 C 7,2 C 87 % 1021,3 hPa 0,0 l/m 0 min 2 min 57 W/m 12,9 km/h (3 Bft) 97,87 %
19.11.2020 13:06 9,9 C 8,3 C 7,2 C 87 % 1021,3 hPa 0,0 l/m 0 min 0 min 65 W/m 16,1 km/h (3 Bft) 100,00 %
19.11.2020 13:08 9,8 C 8,9 C 7,8 C 87 % 1021,3 hPa 0,0 l/m 0 min 0 min 82 W/m 22,5 km/h (4 Bft) 100,00 %
19.11.2020 13:10 9,8 C 8,9 C 7,8 C 87 % 1021,3 hPa 0,0 l/m 0 min 0 min 69 W/m 12,9 km/h (3 Bft) 100,00 %
19.11.2020 13:12 9,8 C 9,4 C 7,8 C 87 % 1021,3 hPa 0,0 l/m 0 min 0 min 71 W/m 9,7 km/h (2 Bft) 100,00 %
19.11.2020 13:14 9,8 C 9,4 C 7,8 C 87 % 1021,3 hPa 0,0 l/m 0 min 0 min 89 W/m 32,2 km/h (5 Bft) 100,00 %
19.11.2020 13:16 9,8 C 9,4 C 8,4 C 87 % 1021,3 hPa 0,0 l/m 0 min 0 min 106 W/m 16,1 km/h (3 Bft) 100,00 %
19.11.2020 13:18 9,8 C 9,4 C 8,4 C 87 % 1021,3 hPa 0,0 l/m 0 min 0 min 72 W/m 25,7 km/h (4 Bft) 100,00 %
19.11.2020 13:20 9,9 C 9,4 C 8,4 C 87 % 1021,3 hPa 0,0 l/m 0 min 0 min 52 W/m 25,7 km/h (4 Bft) 97,92 %
19.11.2020 13:22 9,9 C 9,4 C 8,4 C 86 % 1021,3 hPa 0,0 l/m 0 min 0 min 41 W/m 16,1 km/h (3 Bft) 100,00 %
19.11.2020 13:24 9,9 C 9,4 C 8,4 C 86 % 1021,3 hPa 0,0 l/m 0 min 0 min 38 W/m 12,9 km/h (3 Bft) 100,00 %
19.11.2020 13:26 9,9 C 9,4 C 8,4 C 86 % 1021,4 hPa 0,0 l/m 0 min 0 min 30 W/m 29,0 km/h (5 Bft) 100,00 %
19.11.2020 13:28 9,9 C 9,4 C 8,4 C 86 % 1021,5 hPa 0,0 l/m 0 min 0 min 23 W/m 38,6 km/h (5 Bft) 95,74 %
19.11.2020 13:30 9,9 C 8,9 C 7,8 C 86 % 1021,4 hPa 0,0 l/m 0 min 0 min 17 W/m 22,5 km/h (4 Bft) 97,83 %
19.11.2020 13:32 10,0 C 8,9 C 7,8 C 86 % 1021,4 hPa 0,0 l/m 0 min 0 min 14 W/m 12,9 km/h (3 Bft) 100,00 %
19.11.2020 13:34 10,0 C 8,3 C 7,8 C 86 % 1021,5 hPa 0,0 l/m 0 min 0 min 16 W/m 32,2 km/h (5 Bft) 100,00 %
19.11.2020 13:36 10,0 C 7,8 C 7,2 C 86 % 1021,5 hPa 0,0 l/m 0 min 2 min 20 W/m 9,7 km/h (2 Bft) 100,00 %
19.11.2020 13:38 9,9 C 7,8 C 7,2 C 86 % 1021,5 hPa 0,0 l/m 0 min 2 min 32 W/m 25,7 km/h (4 Bft) 97,87 %
19.11.2020 13:40 9,9 C 8,3 C 7,2 C 86 % 1021,5 hPa 0,0 l/m 0 min 2 min 57 W/m 19,3 km/h (3 Bft) 97,14 %
19.11.2020 13:42 9,9 C 8,3 C 7,2 C 87 % 1021,5 hPa 0,0 l/m 0 min 2 min 62 W/m 19,3 km/h (3 Bft) 100,00 %
19.11.2020 13:44 9,9 C 8,9 C 7,8 C 87 % 1021,6 hPa 0,0 l/m 0 min 2 min 52 W/m 22,5 km/h (4 Bft) 95,65 %
19.11.2020 13:46 9,8 C 9,4 C 7,8 C 87 % 1021,6 hPa 0,0 l/m 0 min 0 min 51 W/m 12,9 km/h (3 Bft) 97,87 %
19.11.2020 13:48 9,8 C 9,4 C 7,8 C 87 % 1021,6 hPa 0,0 l/m 0 min 0 min 58 W/m 19,3 km/h (3 Bft) 97,87 %
19.11.2020 13:50 9,8 C 9,4 C 7,8 C 87 % 1021,6 hPa 0,0 l/m 0 min 0 min 57 W/m 22,5 km/h (4 Bft) 93,62 %
19.11.2020 13:52 9,8 C 9,4 C 8,4 C 87 % 1021,6 hPa 0,0 l/m 0 min 0 min 47 W/m 12,9 km/h (3 Bft) 97,87 %
19.11.2020 13:54 9,8 C 9,4 C 8,4 C 87 % 1021,6 hPa 0,0 l/m 0 min 0 min 41 W/m 16,1 km/h (3 Bft) 97,87 %
19.11.2020 13:56 9,8 C 9,4 C 8,4 C 87 % 1021,6 hPa 0,0 l/m 0 min 0 min 43 W/m 19,3 km/h (3 Bft) 95,65 %
19.11.2020 13:58 9,8 C 9,4 C 8,4 C 87 % 1021,6 hPa 0,0 l/m 0 min 0 min 29 W/m 22,5 km/h (4 Bft) 95,74 %
19.11.2020 14:00 9,8 C 9,4 C 8,4 C 87 % 1021,6 hPa 0,0 l/m 0 min 0 min 20 W/m 19,3 km/h (3 Bft) 97,87 %
19.11.2020 14:02 9,8 C 9,4 C 8,4 C 87 % 1021,6 hPa 0,0 l/m 0 min 0 min 16 W/m 25,7 km/h (4 Bft) 96,23 %
19.11.2020 14:04 9,8 C 9,4 C 8,4 C 87 % 1021,6 hPa 0,0 l/m 0 min 0 min 21 W/m 6,4 km/h (2 Bft) 97,87 %
19.11.2020 14:06 9,8 C 9,4 C 8,4 C 87 % 1021,6 hPa 0,0 l/m 0 min 0 min 26 W/m 22,5 km/h (4 Bft) 97,87 %
19.11.2020 14:08 9,8 C 9,4 C 8,4 C 87 % 1021,5 hPa 0,0 l/m 0 min 0 min 34 W/m 38,6 km/h (5 Bft) 97,87 %
19.11.2020 14:10 9,8 C 9,4 C 8,4 C 87 % 1021,6 hPa 0,0 l/m 0 min 0 min 56 W/m 25,7 km/h (4 Bft) 97,96 %
19.11.2020 14:12 9,8 C 9,4 C 8,4 C 87 % 1021,6 hPa 0,0 l/m 0 min 0 min 93 W/m 25,7 km/h (4 Bft) 97,87 %
19.11.2020 14:14 9,8 C 9,4 C 8,4 C 87 % 1021,7 hPa 0,0 l/m 0 min 0 min 96 W/m 25,7 km/h (4 Bft) 97,87 %
19.11.2020 14:16 9,9 C 9,4 C 8,4 C 87 % 1021,7 hPa 0,0 l/m 0 min 0 min 76 W/m 16,1 km/h (3 Bft) 95,74 %
19.11.2020 14:18 9,9 C 9,4 C 8,4 C 87 % 1021,7 hPa 0,0 l/m 0 min 0 min 81 W/m 22,5 km/h (4 Bft) 97,87 %
19.11.2020 14:20 9,9 C 9,4 C 8,9 C 87 % 1021,7 hPa 0,0 l/m 0 min 0 min 91 W/m 22,5 km/h (4 Bft) 97,87 %
19.11.2020 14:22 9,9 C 10,0 C 8,9 C 87 % 1021,7 hPa 0,0 l/m 0 min 0 min 85 W/m 25,7 km/h (4 Bft) 97,83 %
19.11.2020 14:24 9,9 C 10,0 C 8,9 C 87 % 1021,7 hPa 0,0 l/m 0 min 0 min 116 W/m 35,4 km/h (5 Bft) 97,87 %
19.11.2020 14:26 9,9 C 10,6 C 8,9 C 87 % 1021,7 hPa 0,0 l/m 0 min 0 min 101 W/m 25,7 km/h (4 Bft) 97,87 %
19.11.2020 14:28 9,9 C 10,0 C 8,9 C 87 % 1021,6 hPa 0,0 l/m 0 min 0 min 73 W/m 35,4 km/h (5 Bft) 97,87 %
19.11.2020 14:30 10,0 C 10,0 C 8,9 C 87 % 1021,6 hPa 0,0 l/m 0 min 0 min 70 W/m 9,7 km/h (2 Bft) 97,87 %
19.11.2020 14:32 10,0 C 10,0 C 8,9 C 87 % 1021,6 hPa 0,0 l/m 0 min 0 min 110 W/m 25,7 km/h (4 Bft) 100,00 %
19.11.2020 14:34 10,0 C 10,0 C 8,9 C 87 % 1021,7 hPa 0,0 l/m 0 min 0 min 93 W/m 32,2 km/h (5 Bft) 97,87 %
19.11.2020 14:36 10,0 C 10,0 C 8,4 C 87 % 1021,7 hPa 0,0 l/m 0 min 0 min 49 W/m 19,3 km/h (3 Bft) 100,00 %
19.11.2020 14:38 10,0 C 9,4 C 8,4 C 87 % 1021,7 hPa 0,0 l/m 0 min 0 min 69 W/m 16,1 km/h (3 Bft) 100,00 %
19.11.2020 14:40 10,0 C 9,4 C 8,4 C 87 % 1021,7 hPa 0,0 l/m 0 min 0 min 61 W/m 29,0 km/h (5 Bft) 100,00 %
19.11.2020 14:42 10,0 C 9,4 C 8,4 C 86 % 1021,8 hPa 0,0 l/m 0 min 0 min 51 W/m 22,5 km/h (4 Bft) 100,00 %
19.11.2020 14:44 10,0 C 8,9 C 7,8 C 87 % 1021,8 hPa 0,0 l/m 0 min 0 min 48 W/m 25,7 km/h (4 Bft) 100,00 %
19.11.2020 14:46 10,0 C 8,9 C 7,8 C 87 % 1021,9 hPa 0,0 l/m 0 min 0 min 38 W/m 19,3 km/h (3 Bft) 100,00 %
19.11.2020 14:48 10,0 C 9,4 C 7,8 C 87 % 1022,0 hPa 0,0 l/m 0 min 0 min 22 W/m 19,3 km/h (3 Bft) 100,00 %
19.11.2020 14:50 10,0 C 9,4 C 7,8 C 87 % 1022,2 hPa 0,0 l/m 0 min 2 min 16 W/m 19,3 km/h (3 Bft) 100,00 %
19.11.2020 14:52 10,0 C 8,9 C 7,8 C 87 % 1022,3 hPa 0,0 l/m 0 min 2 min 11 W/m 29,0 km/h (5 Bft) 100,00 %
19.11.2020 14:54 10,0 C 8,3 C 7,2 C 88 % 1022,5 hPa 0,2 l/m 0 min 2 min 11 W/m 22,5 km/h (4 Bft) 100,00 %
19.11.2020 14:56 9,9 C 7,8 C 6,7 C 87 % 1022,4 hPa 0,2 l/m 0 min 2 min 10 W/m 22,5 km/h (4 Bft) 100,00 %
19.11.2020 14:58 9,8 C 7,2 C 6,1 C 87 % 1022,5 hPa 0,0 l/m 0 min 2 min 13 W/m 22,5 km/h (4 Bft) 100,00 %
19.11.2020 15:00 9,7 C 7,2 C 6,1 C 87 % 1022,5 hPa 0,0 l/m 0 min 2 min 23 W/m 22,5 km/h (4 Bft) 100,00 %
19.11.2020 15:02 9,6 C 7,8 C 6,1 C 87 % 1022,5 hPa 0,2 l/m 0 min 0 min 41 W/m 29,0 km/h (5 Bft) 97,83 %
19.11.2020 15:04 9,5 C 7,8 C 6,7 C 88 % 1022,6 hPa 0,0 l/m 0 min 0 min 56 W/m 29,0 km/h (5 Bft) 95,74 %
19.11.2020 15:06 9,3 C 7,8 C 6,7 C 88 % 1022,6 hPa 0,0 l/m 0 min 0 min 60 W/m 29,0 km/h (5 Bft) 97,87 %
19.11.2020 15:08 9,3 C 8,3 C 7,2 C 89 % 1022,6 hPa 0,0 l/m 0 min 0 min 54 W/m 19,3 km/h (3 Bft) 97,87 %
19.11.2020 15:10 9,2 C 8,3 C 7,2 C 89 % 1022,6 hPa 0,0 l/m 0 min 0 min 45 W/m 29,0 km/h (5 Bft) 97,14 %
19.11.2020 15:12 9,2 C 8,3 C 7,2 C 90 % 1022,7 hPa 0,0 l/m 0 min 0 min 37 W/m 19,3 km/h (3 Bft) 95,74 %
19.11.2020 15:14 9,2 C 8,3 C 7,2 C 90 % 1022,7 hPa 0,0 l/m 0 min 0 min 35 W/m 25,7 km/h (4 Bft) 97,87 %
19.11.2020 15:16 9,2 C 8,3 C 7,2 C 90 % 1022,7 hPa 0,0 l/m 0 min 0 min 35 W/m 25,7 km/h (4 Bft) 97,83 %
19.11.2020 15:18 9,2 C 8,3 C 7,2 C 91 % 1022,8 hPa 0,0 l/m 0 min 0 min 36 W/m 35,4 km/h (5 Bft) 95,74 %
19.11.2020 15:20 9,2 C 8,9 C 7,2 C 91 % 1022,8 hPa 0,0 l/m 0 min 0 min 34 W/m 22,5 km/h (4 Bft) 93,62 %
19.11.2020 15:22 9,2 C 8,9 C 7,2 C 91 % 1022,9 hPa 0,0 l/m 0 min 0 min 30 W/m 35,4 km/h (5 Bft) 94,92 %
19.11.2020 15:24 9,2 C 8,9 C 7,2 C 91 % 1022,9 hPa 0,0 l/m 0 min 0 min 28 W/m 19,3 km/h (3 Bft) 95,74 %
19.11.2020 15:26 9,2 C 8,9 C 7,2 C 91 % 1023,0 hPa 0,0 l/m 0 min 0 min 28 W/m 19,3 km/h (3 Bft) 93,48 %
19.11.2020 15:28 9,2 C 8,9 C 7,2 C 92 % 1023,1 hPa 0,0 l/m 0 min 0 min 28 W/m 22,5 km/h (4 Bft) 95,74 %
19.11.2020 15:30 9,2 C 8,3 C 7,2 C 92 % 1023,1 hPa 0,0 l/m 0 min 0 min 28 W/m 25,7 km/h (4 Bft) 95,74 %
19.11.2020 15:32 9,2 C 8,3 C 7,2 C 92 % 1023,1 hPa 0,0 l/m 0 min 0 min 27 W/m 9,7 km/h (2 Bft) 95,74 %
19.11.2020 15:34 9,2 C 8,3 C 7,2 C 92 % 1023,2 hPa 0,0 l/m 0 min 0 min 23 W/m 12,9 km/h (3 Bft) 95,74 %
19.11.2020 15:36 9,2 C 8,3 C 7,2 C 92 % 1023,2 hPa 0,0 l/m 0 min 0 min 19 W/m 9,7 km/h (2 Bft) 95,65 %
19.11.2020 15:38 9,2 C 8,3 C 7,2 C 92 % 1023,2 hPa 0,0 l/m 0 min 0 min 16 W/m 6,4 km/h (2 Bft) 93,62 %
19.11.2020 15:40 9,2 C 8,3 C 7,2 C 92 % 1023,3 hPa 0,0 l/m 0 min 0 min 15 W/m 16,1 km/h (3 Bft) 97,14 %
19.11.2020 15:42 9,2 C 8,3 C 7,2 C 92 % 1023,4 hPa 0,0 l/m 0 min 0 min 18 W/m 9,7 km/h (2 Bft) 95,74 %
19.11.2020 15:44 9,1 C 8,3 C 7,2 C 92 % 1023,4 hPa 0,0 l/m 0 min 0 min 20 W/m 22,5 km/h (4 Bft) 93,62 %
19.11.2020 15:46 9,1 C 8,3 C 7,2 C 91 % 1023,4 hPa 0,0 l/m 0 min 0 min 23 W/m 9,7 km/h (2 Bft) 95,74 %
19.11.2020 15:48 9,1 C 8,3 C 7,2 C 91 % 1023,5 hPa 0,0 l/m 0 min 0 min 23 W/m 12,9 km/h (3 Bft) 95,74 %
19.11.2020 15:50 9,0 C 8,3 C 7,2 C 91 % 1023,6 hPa 0,0 l/m 0 min 0 min 24 W/m 3,2 km/h (1 Bft) 91,49 %
19.11.2020 15:52 9,0 C 8,3 C 6,7 C 91 % 1023,7 hPa 0,0 l/m 0 min 0 min 23 W/m 16,1 km/h (3 Bft) 93,48 %
19.11.2020 15:54 9,0 C 8,3 C 6,7 C 91 % 1023,7 hPa 0,0 l/m 0 min 0 min 21 W/m 3,2 km/h (1 Bft) 95,74 %
19.11.2020 15:56 9,0 C 8,3 C 6,7 C 91 % 1023,7 hPa 0,0 l/m 0 min 0 min 19 W/m 0,0 km/h (0 Bft) 97,87 %
19.11.2020 15:58 8,9 C 7,8 C 6,7 C 91 % 1023,7 hPa 0,0 l/m 0 min 0 min 19 W/m 3,2 km/h (1 Bft) 97,87 %
19.11.2020 16:00 8,9 C 7,8 C 6,7 C 91 % 1023,7 hPa 0,0 l/m 0 min 0 min 21 W/m 9,7 km/h (2 Bft) 97,87 %
19.11.2020 16:02 8,8 C 7,8 C 6,7 C 91 % 1023,7 hPa 0,0 l/m 0 min 0 min 20 W/m 19,3 km/h (3 Bft) 98,11 %
19.11.2020 16:05 8,8 C 7,8 C 6,7 C 91 % 1023,8 hPa 0,0 l/m 0 min 0 min 19 W/m 12,9 km/h (3 Bft) 97,14 %
19.11.2020 16:06 8,8 C 7,8 C 6,7 C 91 % 1023,8 hPa 0,0 l/m 0 min 0 min 19 W/m 6,4 km/h (2 Bft) 96,30 %
19.11.2020 16:08 8,7 C 7,8 C 6,7 C 91 % 1023,9 hPa 0,0 l/m 0 min 0 min 18 W/m 9,7 km/h (2 Bft) 97,78 %
19.11.2020 16:10 8,6 C 7,8 C 6,7 C 91 % 1023,9 hPa 0,0 l/m 0 min 0 min 15 W/m 16,1 km/h (3 Bft) 97,87 %
19.11.2020 16:12 8,6 C 7,8 C 6,7 C 91 % 1024,0 hPa 0,0 l/m 0 min 0 min 13 W/m 16,1 km/h (3 Bft) 95,74 %
19.11.2020 16:14 8,6 C 7,8 C 6,7 C 91 % 1024,1 hPa 0,0 l/m 0 min 0 min 11 W/m 19,3 km/h (3 Bft) 97,87 %
19.11.2020 16:16 8,5 C 7,8 C 6,7 C 91 % 1024,1 hPa 0,0 l/m 0 min 0 min 10 W/m 16,1 km/h (3 Bft) 95,74 %
19.11.2020 16:20 8,5 C 7,8 C 6,7 C 91 % 1024,2 hPa 0,0 l/m 0 min 0 min 6 W/m 12,9 km/h (3 Bft) 97,30 %
19.11.2020 16:22 8,5 C 7,8 C 6,7 C 91 % 1024,3 hPa 0,0 l/m 0 min 0 min 5 W/m 22,5 km/h (4 Bft) 97,87 %
19.11.2020 16:24 8,5 C 7,8 C 6,7 C 91 % 1024,3 hPa 0,0 l/m 0 min 0 min 0 W/m 6,4 km/h (2 Bft) 97,83 %
19.11.2020 16:26 8,5 C 7,8 C 6,7 C 92 % 1024,4 hPa 0,0 l/m 0 min 0 min 0 W/m 9,7 km/h (2 Bft) 97,87 %
19.11.2020 16:28 8,5 C 7,8 C 6,7 C 92 % 1024,4 hPa 0,0 l/m 0 min 0 min 0 W/m 12,9 km/h (3 Bft) 100,00 %
19.11.2020 16:30 8,4 C 7,8 C 6,7 C 92 % 1024,6 hPa 0,0 l/m 0 min 2 min 0 W/m 29,0 km/h (5 Bft) 100,00 %
19.11.2020 16:32 8,4 C 7,2 C 6,7 C 92 % 1024,7 hPa 0,0 l/m 0 min 2 min 0 W/m 22,5 km/h (4 Bft) 95,74 %
19.11.2020 16:34 8,4 C 7,2 C 6,7 C 92 % 1024,8 hPa 0,2 l/m 0 min 2 min 0 W/m 22,5 km/h (4 Bft) 95,65 %
19.11.2020 16:36 8,4 C 7,2 C 6,1 C 92 % 1024,8 hPa 0,0 l/m 0 min 2 min 0 W/m 25,7 km/h (4 Bft) 97,87 %
19.11.2020 16:38 8,4 C 7,2 C 6,7 C 92 % 1025,0 hPa 0,0 l/m 0 min 2 min 0 W/m 25,7 km/h (4 Bft) 97,87 %
19.11.2020 16:40 8,4 C 7,2 C 6,7 C 93 % 1025,1 hPa 0,0 l/m 0 min 2 min 0 W/m 19,3 km/h (3 Bft) 97,87 %
19.11.2020 16:42 8,4 C 7,2 C 6,7 C 93 % 1025,1 hPa 0,0 l/m 0 min 2 min 0 W/m 16,1 km/h (3 Bft) 95,74 %
19.11.2020 16:44 8,4 C 7,2 C 6,7 C 93 % 1025,1 hPa 0,2 l/m 0 min 2 min 0 W/m 16,1 km/h (3 Bft) 93,62 %
19.11.2020 16:46 8,4 C 7,2 C 6,7 C 93 % 1025,1 hPa 0,0 l/m 0 min 2 min 0 W/m 9,7 km/h (2 Bft) 97,83 %
19.11.2020 16:48 8,4 C 7,2 C 6,7 C 93 % 1025,1 hPa 0,0 l/m 0 min 2 min 0 W/m 12,9 km/h (3 Bft) 97,87 %
19.11.2020 16:50 8,4 C 7,2 C 6,7 C 93 % 1025,1 hPa 0,0 l/m 0 min 0 min 0 W/m 12,9 km/h (3 Bft) 97,87 %
19.11.2020 16:52 8,4 C 7,2 C 6,7 C 94 % 1025,2 hPa 0,2 l/m 0 min 0 min 0 W/m 16,1 km/h (3 Bft) 97,87 %
19.11.2020 16:54 8,3 C 7,2 C 6,7 C 94 % 1025,2 hPa 0,0 l/m 0 min 0 min 0 W/m 22,5 km/h (4 Bft) 97,87 %
19.11.2020 16:56 8,3 C 7,2 C 6,7 C 94 % 1025,3 hPa 0,0 l/m 0 min 0 min 0 W/m 12,9 km/h (3 Bft) 61,70 %
19.11.2020 16:58 8,3 C 6,7 C 6,7 C 94 % 1025,3 hPa 0,0 l/m 0 min 0 min 0 W/m 16,1 km/h (3 Bft) 91,30 %
19.11.2020 17:00 8,3 C 7,2 C 6,7 C 94 % 1025,3 hPa 0,0 l/m 0 min 0 min 0 W/m 9,7 km/h (2 Bft) 97,87 %
19.11.2020 17:02 8,3 C 6,7 C 6,7 C 94 % 1025,4 hPa 0,0 l/m 0 min 0 min 0 W/m 12,9 km/h (3 Bft) 95,74 %
19.11.2020 17:04 8,2 C 6,7 C 6,7 C 94 % 1025,4 hPa 0,0 l/m 0 min 0 min 0 W/m 9,7 km/h (2 Bft) 95,74 %
19.11.2020 17:06 8,2 C 6,7 C 6,7 C 94 % 1025,4 hPa 0,0 l/m 0 min 0 min 0 W/m 9,7 km/h (2 Bft) 97,87 %
19.11.2020 17:08 8,2 C 7,2 C 6,7 C 94 % 1025,5 hPa 0,0 l/m 0 min 0 min 0 W/m 6,4 km/h (2 Bft) 97,87 %
19.11.2020 17:10 8,2 C 7,2 C 6,7 C 94 % 1025,6 hPa 0,0 l/m 0 min 0 min 0 W/m 9,7 km/h (2 Bft) 97,83 %
19.11.2020 17:12 8,1 C 7,2 C 6,7 C 94 % 1025,6 hPa 0,0 l/m 0 min 0 min 0 W/m 12,9 km/h (3 Bft) 96,00 %
19.11.2020 17:14 8,1 C 7,2 C 6,7 C 95 % 1025,6 hPa 0,0 l/m 0 min 0 min 0 W/m 12,9 km/h (3 Bft) 100,00 %
19.11.2020 17:16 8,1 C 7,2 C 6,7 C 95 % 1025,7 hPa 0,0 l/m 0 min 0 min 0 W/m 12,9 km/h (3 Bft) 95,74 %
19.11.2020 17:18 8,1 C 7,2 C 6,7 C 95 % 1025,7 hPa 0,0 l/m 0 min 0 min 0 W/m 16,1 km/h (3 Bft) 100,00 %
19.11.2020 17:20 8,1 C 7,2 C 6,7 C 95 % 1025,7 hPa 0,0 l/m 0 min 0 min 0 W/m 16,1 km/h (3 Bft) 100,00 %
19.11.2020 17:22 8,1 C 7,2 C 6,7 C 95 % 1025,7 hPa 0,0 l/m 0 min 0 min 0 W/m 3,2 km/h (1 Bft) 100,00 %
19.11.2020 17:24 8,1 C 7,2 C 6,7 C 95 % 1025,9 hPa 0,0 l/m 0 min 0 min 0 W/m 6,4 km/h (2 Bft) 100,00 %
19.11.2020 17:26 8,1 C 7,2 C 6,7 C 95 % 1025,9 hPa 0,0 l/m 0 min 0 min 0 W/m 12,9 km/h (3 Bft) 100,00 %
19.11.2020 17:28 8,1 C 7,2 C 6,7 C 95 % 1025,9 hPa 0,0 l/m 0 min 0 min 0 W/m 16,1 km/h (3 Bft) 100,00 %
19.11.2020 17:30 8,1 C 6,7 C 6,7 C 95 % 1026,0 hPa 0,0 l/m 0 min 0 min 0 W/m 9,7 km/h (2 Bft) 97,92 %
19.11.2020 17:32 8,1 C 6,7 C 6,7 C 95 % 1026,0 hPa 0,0 l/m 0 min 0 min 0 W/m 12,9 km/h (3 Bft) 97,87 %
19.11.2020 17:34 8,0 C 6,7 C 6,7 C 95 % 1026,0 hPa 0,0 l/m 0 min 0 min 0 W/m 12,9 km/h (3 Bft) 100,00 %
19.11.2020 17:36 8,0 C 6,7 C 6,1 C 95 % 1026,1 hPa 0,0 l/m 0 min 0 min 0 W/m 6,4 km/h (2 Bft) 100,00 %
19.11.2020 17:38 8,0 C 6,7 C 6,1 C 95 % 1026,2 hPa 0,0 l/m 0 min 0 min 0 W/m 6,4 km/h (2 Bft) 97,87 %
19.11.2020 17:40 7,9 C 6,7 C 6,1 C 95 % 1026,3 hPa 0,0 l/m 0 min 0 min 0 W/m 16,1 km/h (3 Bft) 100,00 %
19.11.2020 17:42 7,8 C 6,7 C 6,1 C 95 % 1026,3 hPa 0,0 l/m 0 min 0 min 0 W/m 9,7 km/h (2 Bft) 100,00 %
19.11.2020 17:44 7,8 C 6,1 C 6,1 C 95 % 1026,4 hPa 0,0 l/m 0 min 0 min 0 W/m 6,4 km/h (2 Bft) 100,00 %
19.11.2020 17:46 7,7 C 6,1 C 6,1 C 95 % 1026,4 hPa 0,0 l/m 0 min 0 min 0 W/m 3,2 km/h (1 Bft) 100,00 %
19.11.2020 17:48 7,6 C 6,1 C 6,1 C 95 % 1026,5 hPa 0,0 l/m 0 min 0 min 0 W/m 9,7 km/h (2 Bft) 100,00 %
19.11.2020 17:50 7,6 C 6,1 C 6,1 C 95 % 1026,6 hPa 0,0 l/m 0 min 0 min 0 W/m 0,0 km/h (0 Bft) 97,87 %
19.11.2020 17:52 7,5 C 6,1 C 6,1 C 95 % 1026,7 hPa 0,0 l/m 0 min 0 min 0 W/m 3,2 km/h (1 Bft) 100,00 %
19.11.2020 17:54 7,5 C 6,1 C 5,6 C 95 % 1026,7 hPa 0,0 l/m 0 min 0 min 0 W/m 0,0 km/h (0 Bft) 100,00 %
19.11.2020 17:56 7,5 C 6,1 C 5,6 C 95 % 1026,7 hPa 0,0 l/m 0 min 0 min 0 W/m 3,2 km/h (1 Bft) 97,87 %
19.11.2020 17:58 7,5 C 6,1 C 6,1 C 95 % 1026,7 hPa 0,0 l/m 0 min 0 min 0 W/m 0,0 km/h (0 Bft) 100,00 %
19.11.2020 18:00 7,4 C 6,1 C 5,6 C 95 % 1026,8 hPa 0,0 l/m 0 min 0 min 0 W/m 0,0 km/h (0 Bft) 95,65 %
19.11.2020 18:02 7,4 C 6,1 C 5,6 C 95 % 1026,9 hPa 0,0 l/m 0 min 0 min 0 W/m 0,0 km/h (0 Bft) 97,87 %
19.11.2020 18:04 7,4 C 6,1 C 6,1 C 95 % 1027,0 hPa 0,0 l/m 0 min 0 min 0 W/m 0,0 km/h (0 Bft) 97,87 %
19.11.2020 18:07 7,4 C 6,1 C 5,6 C 95 % 1027,2 hPa 0,0 l/m 0 min 0 min 0 W/m 0,0 km/h (0 Bft) 97,14 %
19.11.2020 18:08 7,4 C 6,1 C 5,6 C 95 % 1027,2 hPa 0,0 l/m 0 min 0 min 0 W/m 0,0 km/h (0 Bft) 95,83 %
19.11.2020 18:10 7,4 C 6,1 C 5,6 C 95 % 1027,2 hPa 0,0 l/m 0 min 0 min 0 W/m 0,0 km/h (0 Bft) 97,87 %
19.11.2020 18:12 7,3 C 6,1 C 5,6 C 95 % 1027,3 hPa 0,0 l/m 0 min 0 min 0 W/m 3,2 km/h (1 Bft) 97,83 %
19.11.2020 18:14 7,3 C 6,1 C 5,6 C 95 % 1027,4 hPa 0,0 l/m 0 min 0 min 0 W/m 6,4 km/h (2 Bft) 97,87 %
19.11.2020 18:16 7,3 C 6,1 C 5,6 C 95 % 1027,4 hPa 0,0 l/m 0 min 0 min 0 W/m 12,9 km/h (3 Bft) 97,87 %
19.11.2020 18:18 7,3 C 6,1 C 5,6 C 95 % 1027,5 hPa 0,0 l/m 0 min 0 min 0 W/m 9,7 km/h (2 Bft) 95,74 %
19.11.2020 18:20 7,2 C 6,1 C 6,1 C 95 % 1027,5 hPa 0,0 l/m 0 min 0 min 0 W/m 9,7 km/h (2 Bft) 97,87 %
19.11.2020 18:22 7,1 C 6,1 C 6,1 C 95 % 1027,5 hPa 0,0 l/m 0 min 0 min 0 W/m 3,2 km/h (1 Bft) 97,87 %
19.11.2020 18:24 7,1 C 6,1 C 5,6 C 95 % 1027,5 hPa 0,0 l/m 0 min 0 min 0 W/m 9,7 km/h (2 Bft) 97,83 %
19.11.2020 18:26 7,1 C 6,1 C 6,1 C 95 % 1027,6 hPa 0,0 l/m 0 min 0 min 0 W/m 12,9 km/h (3 Bft) 97,87 %
19.11.2020 18:28 7,1 C 6,1 C 6,1 C 95 % 1027,6 hPa 0,0 l/m 0 min 0 min 0 W/m 12,9 km/h (3 Bft) 98,28 %
19.11.2020 18:30 7,1 C 6,1 C 6,1 C 95 % 1027,6 hPa 0,0 l/m 0 min 0 min 0 W/m 9,7 km/h (2 Bft) 95,74 %
19.11.2020 18:32 7,1 C 6,1 C 6,1 C 95 % 1027,6 hPa 0,0 l/m 0 min 0 min 0 W/m 9,7 km/h (2 Bft) 97,83 %
19.11.2020 18:34 7,1 C 6,1 C 6,1 C 95 % 1027,7 hPa 0,0 l/m 0 min 0 min 0 W/m 6,4 km/h (2 Bft) 97,87 %
19.11.2020 18:36 7,1 C 6,1 C 6,1 C 95 % 1027,7 hPa 0,0 l/m 0 min 0 min 0 W/m 9,7 km/h (2 Bft) 95,74 %
19.11.2020 18:38 7,1 C 6,1 C 6,1 C 95 % 1027,7 hPa 0,0 l/m 0 min 0 min 0 W/m 9,7 km/h (2 Bft) 97,87 %
19.11.2020 18:40 7,1 C 6,1 C 6,1 C 95 % 1027,7 hPa 0,0 l/m 0 min 0 min 0 W/m 16,1 km/h (3 Bft) 97,87 %
19.11.2020 18:42 7,1 C 6,7 C 6,1 C 95 % 1027,9 hPa 0,0 l/m 0 min 0 min 0 W/m 16,1 km/h (3 Bft) 97,87 %
19.11.2020 18:44 7,1 C 6,7 C 6,1 C 95 % 1027,9 hPa 0,0 l/m 0 min 0 min 0 W/m 16,1 km/h (3 Bft) 97,83 %
19.11.2020 18:46 7,1 C 6,7 C 6,1 C 95 % 1028,0 hPa 0,0 l/m 0 min 0 min 0 W/m 16,1 km/h (3 Bft) 97,87 %
19.11.2020 18:48 7,1 C 6,7 C 6,1 C 95 % 1028,0 hPa 0,0 l/m 0 min 0 min 0 W/m 6,4 km/h (2 Bft) 95,74 %
19.11.2020 18:50 7,1 C 6,1 C 6,1 C 95 % 1028,0 hPa 0,0 l/m 0 min 0 min 0 W/m 9,7 km/h (2 Bft) 100,00 %
19.11.2020 18:52 7,1 C 6,1 C 6,1 C 95 % 1028,0 hPa 0,0 l/m 0 min 0 min 0 W/m 9,7 km/h (2 Bft) 100,00 %
19.11.2020 18:54 7,1 C 6,1 C 6,1 C 95 % 1028,0 hPa 0,0 l/m 0 min 0 min 0 W/m 3,2 km/h (1 Bft) 97,83 %
19.11.2020 18:56 7,1 C 6,1 C 5,6 C 95 % 1028,0 hPa 0,0 l/m 0 min 0 min 0 W/m 3,2 km/h (1 Bft) 97,87 %
19.11.2020 18:58 7,1 C 6,1 C 5,6 C 95 % 1028,0 hPa 0,0 l/m 0 min 0 min 0 W/m 6,4 km/h (2 Bft) 100,00 %
19.11.2020 19:00 7,1 C 6,1 C 5,6 C 95 % 1028,1 hPa 0,0 l/m 0 min 0 min 0 W/m 0,0 km/h (0 Bft) 100,00 %
19.11.2020 19:02 7,0 C 6,1 C 5,6 C 95 % 1028,0 hPa 0,0 l/m 0 min 0 min 0 W/m 0,0 km/h (0 Bft) 97,87 %
19.11.2020 19:04 7,0 C 6,1 C 5,6 C 95 % 1028,1 hPa 0,0 l/m 0 min 0 min 0 W/m 0,0 km/h (0 Bft) 100,00 %
19.11.2020 19:06 7,0 C 5,6 C 5,0 C 95 % 1028,0 hPa 0,0 l/m 0 min 0 min 0 W/m 0,0 km/h (0 Bft) 100,00 %
19.11.2020 19:08 7,0 C 5,6 C 5,0 C 95 % 1028,0 hPa 0,0 l/m 0 min 0 min 0 W/m 0,0 km/h (0 Bft) 97,87 %
19.11.2020 19:10 7,0 C 5,6 C 5,0 C 95 % 1028,1 hPa 0,0 l/m 0 min 0 min 0 W/m 0,0 km/h (0 Bft) 95,74 %
19.11.2020 19:12 7,0 C 5,6 C 5,0 C 95 % 1028,2 hPa 0,0 l/m 0 min 0 min 0 W/m 0,0 km/h (0 Bft) 97,87 %
19.11.2020 19:14 7,0 C 5,6 C 5,6 C 95 % 1028,2 hPa 0,0 l/m 0 min 0 min 0 W/m 3,2 km/h (1 Bft) 97,87 %
19.11.2020 19:16 6,9 C 5,6 C 5,6 C 95 % 1028,3 hPa 0,0 l/m 0 min 0 min 0 W/m 0,0 km/h (0 Bft) 97,87 %
19.11.2020 19:18 6,9 C 5,6 C 5,6 C 95 % 1028,3 hPa 0,0 l/m 0 min 0 min 0 W/m 3,2 km/h (1 Bft) 97,83 %
19.11.2020 19:20 6,9 C 5,6 C 5,6 C 95 % 1028,3 hPa 0,0 l/m 0 min 0 min 0 W/m 0,0 km/h (0 Bft) 97,87 %
19.11.2020 19:22 6,9 C 5,6 C 5,6 C 95 % 1028,3 hPa 0,0 l/m 0 min 0 min 0 W/m 0,0 km/h (0 Bft) 97,87 %
19.11.2020 19:24 6,9 C 5,6 C 5,6 C 95 % 1028,2 hPa 0,0 l/m 0 min 0 min 0 W/m 0,0 km/h (0 Bft) 97,87 %
19.11.2020 19:26 6,9 C 5,6 C 5,6 C 95 % 1028,2 hPa 0,0 l/m 0 min 0 min 0 W/m 0,0 km/h (0 Bft) 95,74 %
19.11.2020 19:28 6,9 C 5,6 C 5,6 C 95 % 1028,1 hPa 0,0 l/m 0 min 0 min 0 W/m 0,0 km/h (0 Bft) 97,87 %
19.11.2020 19:30 6,8 C 5,6 C 5,6 C 95 % 1028,1 hPa 0,0 l/m 0 min 0 min 0 W/m 0,0 km/h (0 Bft) 97,83 %
19.11.2020 19:32 6,8 C 5,6 C 5,0 C 95 % 1028,2 hPa 0,0 l/m 0 min 0 min 0 W/m 0,0 km/h (0 Bft) 97,87 %
19.11.2020 19:34 6,8 C 5,6 C 5,0 C 95 % 1028,2 hPa 0,0 l/m 0 min 0 min 0 W/m 3,2 km/h (1 Bft) 97,87 %
19.11.2020 19:36 6,8 C 5,6 C 5,0 C 95 % 1028,2 hPa 0,0 l/m 0 min 0 min 0 W/m 0,0 km/h (0 Bft) 97,87 %
19.11.2020 19:38 6,8 C 5,6 C 5,0 C 95 % 1028,2 hPa 0,0 l/m 0 min 0 min 0 W/m 3,2 km/h (1 Bft) 93,62 %
19.11.2020 19:40 6,7 C 5,6 C 5,0 C 95 % 1028,2 hPa 0,0 l/m 0 min 0 min 0 W/m 3,2 km/h (1 Bft) 97,83 %
19.11.2020 19:42 6,6 C 5,6 C 5,0 C 95 % 1028,2 hPa 0,0 l/m 0 min 0 min 0 W/m 0,0 km/h (0 Bft) 97,87 %
19.11.2020 19:44 6,6 C 5,6 C 5,0 C 95 % 1028,2 hPa 0,0 l/m 0 min 0 min 0 W/m 0,0 km/h (0 Bft) 97,87 %
19.11.2020 19:46 6,6 C 5,6 C 5,0 C 95 % 1028,2 hPa 0,0 l/m 0 min 0 min 0 W/m 3,2 km/h (1 Bft) 93,62 %
19.11.2020 19:48 6,6 C 5,6 C 5,0 C 95 % 1028,3 hPa 0,0 l/m 0 min 0 min 0 W/m 6,4 km/h (2 Bft) 95,74 %
19.11.2020 19:50 6,5 C 5,6 C 5,0 C 95 % 1028,3 hPa 0,0 l/m 0 min 0 min 0 W/m 3,2 km/h (1 Bft) 97,87 %
19.11.2020 19:52 6,5 C 5,6 C 5,0 C 95 % 1028,3 hPa 0,0 l/m 0 min 0 min 0 W/m 3,2 km/h (1 Bft) 100,00 %
19.11.2020 19:54 6,5 C 5,6 C 5,0 C 95 % 1028,3 hPa 0,0 l/m 0 min 0 min 0 W/m 3,2 km/h (1 Bft) 100,00 %
19.11.2020 19:56 6,4 C 5,6 C 5,0 C 95 % 1028,4 hPa 0,0 l/m 0 min 0 min 0 W/m 3,2 km/h (1 Bft) 97,87 %
19.11.2020 19:58 6,4 C 5,6 C 5,0 C 94 % 1028,4 hPa 0,0 l/m 0 min 0 min 0 W/m 6,4 km/h (2 Bft) 100,00 %
19.11.2020 20:00 6,4 C 5,0 C 5,0 C 94 % 1028,5 hPa 0,0 l/m 0 min 0 min 0 W/m 6,4 km/h (2 Bft) 97,87 %
19.11.2020 20:02 6,3 C 5,0 C 5,0 C 94 % 1028,5 hPa 0,0 l/m 0 min 0 min 0 W/m 9,7 km/h (2 Bft) 97,87 %
19.11.2020 20:04 6,3 C 5,0 C 5,0 C 94 % 1028,5 hPa 0,0 l/m 0 min 0 min 0 W/m 3,2 km/h (1 Bft) 97,83 %
19.11.2020 20:06 6,3 C 5,0 C 5,0 C 94 % 1028,5 hPa 0,0 l/m 0 min 0 min 0 W/m 0,0 km/h (0 Bft) 97,87 %
19.11.2020 20:08 6,2 C 5,0 C 4,5 C 94 % 1028,6 hPa 0,0 l/m 0 min 0 min 0 W/m 0,0 km/h (0 Bft) 97,87 %
19.11.2020 20:10 6,2 C 5,0 C 4,5 C 94 % 1028,6 hPa 0,0 l/m 0 min 0 min 0 W/m 0,0 km/h (0 Bft) 97,87 %
19.11.2020 20:12 6,1 C 5,0 C 4,5 C 94 % 1028,7 hPa 0,0 l/m 0 min 0 min 0 W/m 0,0 km/h (0 Bft) 97,87 %
19.11.2020 20:14 6,1 C 5,0 C 4,5 C 94 % 1028,7 hPa 0,0 l/m 0 min 0 min 0 W/m 0,0 km/h (0 Bft) 97,14 %
19.11.2020 20:16 6,1 C 5,0 C 4,5 C 94 % 1028,8 hPa 0,0 l/m 0 min 0 min 0 W/m 0,0 km/h (0 Bft) 97,92 %
19.11.2020 20:18 6,1 C 5,0 C 4,5 C 94 % 1028,9 hPa 0,0 l/m 0 min 0 min 0 W/m 0,0 km/h (0 Bft) 95,74 %
19.11.2020 20:20 6,0 C 5,0 C 4,5 C 94 % 1028,9 hPa 0,0 l/m 0 min 0 min 0 W/m 0,0 km/h (0 Bft) 95,65 %
19.11.2020 20:22 6,0 C 5,0 C 4,5 C 94 % 1028,9 hPa 0,0 l/m 0 min 0 min 0 W/m 3,2 km/h (1 Bft) 97,87 %
19.11.2020 20:24 6,0 C 4,4 C 4,5 C 94 % 1029,0 hPa 0,0 l/m 0 min 0 min 0 W/m 0,0 km/h (0 Bft) 97,87 %
19.11.2020 20:26 6,0 C 4,4 C 4,5 C 94 % 1029,1 hPa 0,0 l/m 0 min 0 min 0 W/m 0,0 km/h (0 Bft) 97,87 %
19.11.2020 20:28 5,9 C 4,4 C 4,5 C 94 % 1029,1 hPa 0,0 l/m 0 min 0 min 0 W/m 0,0 km/h (0 Bft) 95,74 %
19.11.2020 20:30 5,9 C 4,4 C 3,9 C 94 % 1029,1 hPa 0,0 l/m 0 min 0 min 0 W/m 0,0 km/h (0 Bft) 97,83 %
19.11.2020 20:32 5,9 C 5,0 C 3,9 C 94 % 1029,1 hPa 0,0 l/m 0 min 0 min 0 W/m 0,0 km/h (0 Bft) 97,87 %
19.11.2020 20:34 5,9 C 4,4 C 3,9 C 94 % 1029,1 hPa 0,0 l/m 0 min 0 min 0 W/m 0,0 km/h (0 Bft) 97,87 %
19.11.2020 20:36 5,9 C 4,4 C 3,9 C 94 % 1029,1 hPa 0,0 l/m 0 min 0 min 0 W/m 0,0 km/h (0 Bft) 97,87 %
19.11.2020 20:38 5,8 C 4,4 C 3,9 C 93 % 1029,2 hPa 0,0 l/m 0 min 0 min 0 W/m 0,0 km/h (0 Bft) 97,87 %
19.11.2020 20:40 5,8 C 4,4 C 4,5 C 93 % 1029,3 hPa 0,0 l/m 0 min 0 min 0 W/m 0,0 km/h (0 Bft) 95,74 %
19.11.2020 20:42 5,8 C 4,4 C 3,9 C 93 % 1029,3 hPa 0,0 l/m 0 min 0 min 0 W/m 0,0 km/h (0 Bft) 97,83 %
19.11.2020 20:44 5,7 C 4,4 C 4,5 C 93 % 1029,4 hPa 0,0 l/m 0 min 0 min 0 W/m 6,4 km/h (2 Bft) 95,74 %
19.11.2020 20:46 5,6 C 4,4 C 4,5 C 93 % 1029,4 hPa 0,0 l/m 0 min 0 min 0 W/m 3,2 km/h (1 Bft) 97,87 %
19.11.2020 20:48 5,6 C 4,4 C 3,9 C 93 % 1029,4 hPa 0,0 l/m 0 min 0 min 0 W/m 0,0 km/h (0 Bft) 97,87 %
19.11.2020 20:50 5,6 C 4,4 C 3,9 C 93 % 1029,4 hPa 0,0 l/m 0 min 0 min 0 W/m 0,0 km/h (0 Bft) 95,74 %
19.11.2020 20:52 5,5 C 4,4 C 3,9 C 93 % 1029,4 hPa 0,0 l/m 0 min 0 min 0 W/m 0,0 km/h (0 Bft) 97,87 %
19.11.2020 20:54 5,5 C 4,4 C 3,9 C 93 % 1029,5 hPa 0,0 l/m 0 min 0 min 0 W/m 0,0 km/h (0 Bft) 97,83 %
19.11.2020 20:56 5,5 C 4,4 C 3,9 C 93 % 1029,5 hPa 0,0 l/m 0 min 0 min 0 W/m 0,0 km/h (0 Bft) 97,87 %
19.11.2020 20:58 5,5 C 4,4 C 3,9 C 93 % 1029,4 hPa 0,0 l/m 0 min 0 min 0 W/m 3,2 km/h (1 Bft) 97,87 %
19.11.2020 21:00 5,4 C 4,4 C 3,9 C 93 % 1029,5 hPa 0,0 l/m 0 min 0 min 0 W/m 3,2 km/h (1 Bft) 97,87 %
19.11.2020 21:02 5,4 C 4,4 C 3,9 C 93 % 1029,6 hPa 0,0 l/m 0 min 0 min 0 W/m 0,0 km/h (0 Bft) 97,87 %
19.11.2020 21:04 5,4 C 4,4 C 3,9 C 93 % 1029,6 hPa 0,0 l/m 0 min 0 min 0 W/m 0,0 km/h (0 Bft) 95,74 %
19.11.2020 21:06 5,3 C 3,9 C 3,9 C 93 % 1029,7 hPa 0,0 l/m 0 min 0 min 0 W/m 0,0 km/h (0 Bft) 93,48 %
19.11.2020 21:08 5,3 C 3,9 C 3,9 C 93 % 1029,7 hPa 0,0 l/m 0 min 0 min 0 W/m 0,0 km/h (0 Bft) 93,62 %
19.11.2020 21:10 5,3 C 3,9 C 3,9 C 93 % 1029,7 hPa 0,0 l/m 0 min 0 min 0 W/m 0,0 km/h (0 Bft) 95,74 %
19.11.2020 21:12 5,2 C 3,9 C 3,9 C 93 % 1029,7 hPa 0,0 l/m 0 min 0 min 0 W/m 0,0 km/h (0 Bft) 93,62 %
19.11.2020 21:14 5,2 C 3,9 C 3,4 C 93 % 1029,7 hPa 0,0 l/m 0 min 0 min 0 W/m 0,0 km/h (0 Bft) 95,74 %
19.11.2020 21:16 5,1 C 3,9 C 3,9 C 93 % 1029,8 hPa 0,0 l/m 0 min 0 min 0 W/m 0,0 km/h (0 Bft) 95,74 %
19.11.2020 21:18 5,1 C 3,9 C 3,9 C 93 % 1029,9 hPa 0,0 l/m 0 min 0 min 0 W/m 6,4 km/h (2 Bft) 95,65 %
19.11.2020 21:20 5,1 C 3,9 C 3,9 C 93 % 1029,9 hPa 0,0 l/m 0 min 0 min 0 W/m 0,0 km/h (0 Bft) 93,62 %
19.11.2020 21:22 5,1 C 3,9 C 3,9 C 93 % 1030,0 hPa 0,0 l/m 0 min 0 min 0 W/m 3,2 km/h (1 Bft) 93,62 %
19.11.2020 21:24 5,0 C 3,9 C 3,9 C 93 % 1030,0 hPa 0,0 l/m 0 min 0 min 0 W/m 6,4 km/h (2 Bft) 95,74 %
19.11.2020 21:26 5,0 C 3,9 C 3,9 C 93 % 1030,1 hPa 0,0 l/m 0 min 0 min 0 W/m 0,0 km/h (0 Bft) 95,74 %
19.11.2020 21:28 5,0 C 3,9 C 3,9 C 93 % 1030,1 hPa 0,0 l/m 0 min 0 min 0 W/m 3,2 km/h (1 Bft) 93,48 %
19.11.2020 21:30 5,0 C 4,4 C 3,9 C 93 % 1030,2 hPa 0,0 l/m 0 min 0 min 0 W/m 3,2 km/h (1 Bft) 91,49 %
19.11.2020 21:32 5,0 C 4,4 C 3,9 C 93 % 1030,2 hPa 0,0 l/m 0 min 0 min 0 W/m 0,0 km/h (0 Bft) 96,61 %
19.11.2020 21:34 4,9 C 3,9 C 3,9 C 93 % 1030,2 hPa 0,0 l/m 0 min 0 min 0 W/m 0,0 km/h (0 Bft) 93,62 %
19.11.2020 21:36 4,9 C 3,9 C 3,9 C 93 % 1030,2 hPa 0,0 l/m 0 min 0 min 0 W/m 6,4 km/h (2 Bft) 93,48 %
19.11.2020 21:38 4,9 C 3,9 C 3,9 C 93 % 1030,2 hPa 0,0 l/m 0 min 0 min 0 W/m 6,4 km/h (2 Bft) 93,62 %
19.11.2020 21:40 4,9 C 3,9 C 3,9 C 94 % 1030,2 hPa 0,0 l/m 0 min 0 min 0 W/m 0,0 km/h (0 Bft) 93,62 %
19.11.2020 21:42 4,9 C 3,9 C 3,9 C 94 % 1030,1 hPa 0,0 l/m 0 min 0 min 0 W/m 3,2 km/h (1 Bft) 91,49 %
19.11.2020 21:44 4,8 C 3,9 C 3,4 C 94 % 1030,1 hPa 0,0 l/m 0 min 0 min 0 W/m 0,0 km/h (0 Bft) 93,62 %
19.11.2020 21:46 4,8 C 3,9 C 3,4 C 94 % 1030,2 hPa 0,0 l/m 0 min 0 min 0 W/m 0,0 km/h (0 Bft) 95,74 %
19.11.2020 21:48 4,8 C 3,9 C 3,4 C 94 % 1030,1 hPa 0,0 l/m 0 min 0 min 0 W/m 3,2 km/h (1 Bft) 97,83 %
19.11.2020 21:50 4,8 C 3,9 C 3,4 C 93 % 1030,2 hPa 0,0 l/m 0 min 0 min 0 W/m 3,2 km/h (1 Bft) 95,74 %
19.11.2020 21:52 4,8 C 3,9 C 3,4 C 93 % 1030,2 hPa 0,0 l/m 0 min 0 min 0 W/m 3,2 km/h (1 Bft) 95,74 %
19.11.2020 21:54 4,8 C 3,9 C 3,4 C 93 % 1030,3 hPa 0,0 l/m 0 min 0 min 0 W/m 0,0 km/h (0 Bft) 91,43 %
19.11.2020 21:56 4,8 C 3,9 C 3,4 C 93 % 1030,4 hPa 0,0 l/m 0 min 0 min 0 W/m 3,2 km/h (1 Bft) 94,00 %
19.11.2020 21:58 4,7 C 3,9 C 3,4 C 94 % 1030,5 hPa 0,0 l/m 0 min 0 min 0 W/m 3,2 km/h (1 Bft) 97,87 %
19.11.2020 22:00 4,7 C 3,9 C 3,4 C 94 % 1030,6 hPa 0,0 l/m 0 min 0 min 0 W/m 6,4 km/h (2 Bft) 97,87 %
19.11.2020 22:02 4,7 C 3,9 C 3,4 C 94 % 1030,6 hPa 0,0 l/m 0 min 0 min 0 W/m 0,0 km/h (0 Bft) 97,83 %
19.11.2020 22:04 4,6 C 3,9 C 3,4 C 94 % 1030,6 hPa 0,0 l/m 0 min 0 min 0 W/m 0,0 km/h (0 Bft) 95,74 %
19.11.2020 22:06 4,6 C 3,9 C 3,4 C 94 % 1030,6 hPa 0,0 l/m 0 min 0 min 0 W/m 0,0 km/h (0 Bft) 100,00 %
19.11.2020 22:08 4,6 C 3,9 C 3,4 C 94 % 1030,7 hPa 0,0 l/m 0 min 0 min 0 W/m 0,0 km/h (0 Bft) 97,87 %
19.11.2020 22:10 4,6 C 3,9 C 3,4 C 94 % 1030,7 hPa 0,0 l/m 0 min 0 min 0 W/m 0,0 km/h (0 Bft) 95,74 %
19.11.2020 22:12 4,6 C 3,9 C 3,4 C 94 % 1030,7 hPa 0,0 l/m 0 min 0 min 0 W/m 3,2 km/h (1 Bft) 97,87 %
19.11.2020 22:14 4,5 C 3,9 C 3,4 C 94 % 1030,8 hPa 0,0 l/m 0 min 0 min 0 W/m 3,2 km/h (1 Bft) 97,83 %
19.11.2020 22:16 4,5 C 3,9 C 3,4 C 94 % 1030,9 hPa 0,0 l/m 0 min 0 min 0 W/m 0,0 km/h (0 Bft) 95,74 %
19.11.2020 22:18 4,5 C 3,9 C 3,4 C 94 % 1030,9 hPa 0,0 l/m 0 min 0 min 0 W/m 3,2 km/h (1 Bft) 100,00 %
19.11.2020 22:20 4,5 C 3,9 C 3,4 C 94 % 1030,9 hPa 0,0 l/m 0 min 0 min 0 W/m 0,0 km/h (0 Bft) 100,00 %
19.11.2020 22:22 4,5 C 3,3 C 3,4 C 94 % 1031,0 hPa 0,0 l/m 0 min 0 min 0 W/m 3,2 km/h (1 Bft) 100,00 %
19.11.2020 22:24 4,4 C 3,3 C 3,4 C 94 % 1031,0 hPa 0,0 l/m 0 min 0 min 0 W/m 0,0 km/h (0 Bft) 100,00 %
19.11.2020 22:26 4,4 C 3,3 C 3,4 C 94 % 1031,1 hPa 0,0 l/m 0 min 0 min 0 W/m 0,0 km/h (0 Bft) 100,00 %
19.11.2020 22:28 4,4 C 3,3 C 3,4 C 94 % 1031,0 hPa 0,0 l/m 0 min 0 min 0 W/m 0,0 km/h (0 Bft) 100,00 %
19.11.2020 22:30 4,4 C 3,3 C 3,4 C 94 % 1031,1 hPa 0,0 l/m 0 min 0 min 0 W/m 3,2 km/h (1 Bft) 100,00 %
19.11.2020 22:32 4,4 C 3,3 C 3,4 C 94 % 1031,1 hPa 0,0 l/m 0 min 0 min 0 W/m 3,2 km/h (1 Bft) 97,92 %
19.11.2020 22:34 4,4 C 3,3 C 3,4 C 94 % 1031,1 hPa 0,0 l/m 0 min 0 min 0 W/m 0,0 km/h (0 Bft) 100,00 %
19.11.2020 22:36 4,3 C 3,3 C 3,4 C 94 % 1031,1 hPa 0,0 l/m 0 min 0 min 0 W/m 0,0 km/h (0 Bft) 100,00 %
19.11.2020 22:38 4,3 C 3,3 C 3,4 C 94 % 1031,1 hPa 0,0 l/m 0 min 0 min 0 W/m 0,0 km/h (0 Bft) 98,28 %
19.11.2020 22:40 4,3 C 3,3 C 3,4 C 94 % 1031,2 hPa 0,0 l/m 0 min 0 min 0 W/m 3,2 km/h (1 Bft) 100,00 %
19.11.2020 22:42 4,3 C 3,3 C 2,8 C 94 % 1031,2 hPa 0,0 l/m 0 min 0 min 0 W/m 0,0 km/h (0 Bft) 100,00 %
19.11.2020 22:44 4,3 C 3,3 C 2,8 C 94 % 1031,3 hPa 0,0 l/m 0 min 0 min 0 W/m 0,0 km/h (0 Bft) 97,87 %
19.11.2020 22:46 4,3 C 3,3 C 2,8 C 94 % 1031,3 hPa 0,0 l/m 0 min 0 min 0 W/m 6,4 km/h (2 Bft) 97,87 %
19.11.2020 22:48 4,2 C 3,3 C 3,4 C 94 % 1031,2 hPa 0,0 l/m 0 min 0 min 0 W/m 0,0 km/h (0 Bft) 100,00 %
19.11.2020 22:50 4,2 C 3,9 C 3,4 C 94 % 1031,3 hPa 0,0 l/m 0 min 0 min 0 W/m 3,2 km/h (1 Bft) 100,00 %
19.11.2020 22:52 4,2 C 3,9 C 3,4 C 94 % 1031,4 hPa 0,0 l/m 0 min 0 min 0 W/m 3,2 km/h (1 Bft) 100,00 %
19.11.2020 22:54 4,2 C 3,9 C 3,4 C 94 % 1031,4 hPa 0,0 l/m 0 min 0 min 0 W/m 3,2 km/h (1 Bft) 100,00 %
19.11.2020 22:56 4,2 C 3,9 C 3,4 C 94 % 1031,4 hPa 0,0 l/m 0 min 0 min 0 W/m 3,2 km/h (1 Bft) 100,00 %
19.11.2020 22:58 4,3 C 3,9 C 3,4 C 94 % 1031,4 hPa 0,0 l/m 0 min 0 min 0 W/m 6,4 km/h (2 Bft) 100,00 %
19.11.2020 23:00 4,3 C 3,9 C 3,4 C 94 % 1031,5 hPa 0,0 l/m 0 min 0 min 0 W/m 0,0 km/h (0 Bft) 100,00 %
19.11.2020 23:02 4,3 C 3,9 C 3,4 C 94 % 1031,4 hPa 0,0 l/m 0 min 0 min 0 W/m 9,7 km/h (2 Bft) 100,00 %
19.11.2020 23:04 4,3 C 3,9 C 3,4 C 94 % 1031,5 hPa 0,0 l/m 0 min 0 min 0 W/m 9,7 km/h (2 Bft) 97,87 %
19.11.2020 23:06 4,3 C 3,9 C 3,4 C 94 % 1031,6 hPa 0,0 l/m 0 min 0 min 0 W/m 9,7 km/h (2 Bft) 100,00 %
19.11.2020 23:08 4,3 C 3,9 C 3,4 C 95 % 1031,7 hPa 0,0 l/m 0 min 0 min 0 W/m 3,2 km/h (1 Bft) 100,00 %
19.11.2020 23:10 4,3 C 3,9 C 3,9 C 95 % 1031,6 hPa 0,0 l/m 0 min 0 min 0 W/m 3,2 km/h (1 Bft) 100,00 %
19.11.2020 23:12 4,4 C 3,9 C 3,9 C 95 % 1031,6 hPa 0,0 l/m 0 min 0 min 0 W/m 3,2 km/h (1 Bft) 97,83 %
19.11.2020 23:14 4,4 C 4,4 C 3,9 C 95 % 1031,6 hPa 0,0 l/m 0 min 0 min 0 W/m 0,0 km/h (0 Bft) 97,87 %
19.11.2020 23:16 4,4 C 4,4 C 3,9 C 95 % 1031,6 hPa 0,0 l/m 0 min 0 min 0 W/m 0,0 km/h (0 Bft) 95,74 %
19.11.2020 23:18 4,4 C 4,4 C 3,9 C 95 % 1031,7 hPa 0,0 l/m 0 min 0 min 0 W/m 3,2 km/h (1 Bft) 97,87 %
19.11.2020 23:20 4,4 C 4,4 C 3,9 C 95 % 1031,7 hPa 0,0 l/m 0 min 0 min 0 W/m 3,2 km/h (1 Bft) 100,00 %
19.11.2020 23:22 4,4 C 4,4 C 3,9 C 95 % 1031,7 hPa 0,0 l/m 0 min 0 min 0 W/m 9,7 km/h (2 Bft) 97,87 %
19.11.2020 23:24 4,5 C 4,4 C 3,9 C 95 % 1031,7 hPa 0,0 l/m 0 min 0 min 0 W/m 3,2 km/h (1 Bft) 97,83 %
19.11.2020 23:26 4,5 C 4,4 C 3,9 C 95 % 1031,7 hPa 0,0 l/m 0 min 0 min 0 W/m 0,0 km/h (0 Bft) 100,00 %
19.11.2020 23:28 4,5 C 4,4 C 3,9 C 95 % 1031,7 hPa 0,0 l/m 0 min 0 min 0 W/m 0,0 km/h (0 Bft) 100,00 %
19.11.2020 23:30 4,5 C 4,4 C 3,9 C 95 % 1031,8 hPa 0,0 l/m 0 min 0 min 0 W/m 3,2 km/h (1 Bft) 100,00 %
19.11.2020 23:32 4,5 C 4,4 C 3,9 C 95 % 1031,8 hPa 0,0 l/m 0 min 0 min 0 W/m 3,2 km/h (1 Bft) 100,00 %
19.11.2020 23:34 4,5 C 4,4 C 3,9 C 95 % 1031,8 hPa 0,0 l/m 0 min 0 min 0 W/m 0,0 km/h (0 Bft) 100,00 %
19.11.2020 23:36 4,6 C 4,4 C 3,9 C 95 % 1031,8 hPa 0,0 l/m 0 min 0 min 0 W/m 0,0 km/h (0 Bft) 98,00 %
19.11.2020 23:38 4,6 C 4,4 C 3,9 C 95 % 1031,9 hPa 0,0 l/m 0 min 0 min 0 W/m 0,0 km/h (0 Bft) 100,00 %
19.11.2020 23:40 4,6 C 4,4 C 3,9 C 95 % 1031,9 hPa 0,0 l/m 0 min 0 min 0 W/m 6,4 km/h (2 Bft) 97,87 %
19.11.2020 23:42 4,6 C 4,4 C 3,9 C 95 % 1031,9 hPa 0,0 l/m 0 min 0 min 0 W/m 0,0 km/h (0 Bft) 100,00 %
19.11.2020 23:44 4,6 C 4,4 C 3,9 C 95 % 1031,9 hPa 0,0 l/m 0 min 0 min 0 W/m 3,2 km/h (1 Bft) 100,00 %
19.11.2020 23:46 4,6 C 4,4 C 3,9 C 95 % 1031,9 hPa 0,0 l/m 0 min 0 min 0 W/m 0,0 km/h (0 Bft) 100,00 %
19.11.2020 23:48 4,6 C 4,4 C 3,9 C 95 % 1032,0 hPa 0,0 l/m 0 min 0 min 0 W/m 3,2 km/h (1 Bft) 97,87 %
19.11.2020 23:50 4,6 C 4,4 C 3,9 C 95 % 1032,0 hPa 0,0 l/m 0 min 0 min 0 W/m 3,2 km/h (1 Bft) 97,87 %
19.11.2020 23:52 4,6 C 4,4 C 3,9 C 95 % 1032,1 hPa 0,0 l/m 0 min 0 min 0 W/m 3,2 km/h (1 Bft) 100,00 %
19.11.2020 23:54 4,7 C 4,4 C 3,9 C 94 % 1032,1 hPa 0,0 l/m 0 min 0 min 0 W/m 0,0 km/h (0 Bft) 100,00 %
19.11.2020 23:56 4,7 C 4,4 C 3,9 C 95 % 1032,1 hPa 0,0 l/m 0 min 0 min 0 W/m 3,2 km/h (1 Bft) 100,00 %
19.11.2020 23:58 4,7 C 4,4 C 3,9 C 95 % 1032,1 hPa 0,0 l/m 0 min 0 min 0 W/m 0,0 km/h (0 Bft) 97,83 %
_ Min-Zeit 22:48 22:22 22:42 04:32 02:00 - - - - 15:56 09:32
Minimum _ 4,2 C 3,3 C 2,8 C 71 % 1016,2 hPa - - - - 0,0 km/h (0 Bft) 44,74 %
_ Max-Zeit 00:00 00:00 00:00 17:14 23:52 02:44 00:00 02:22 10:36 02:44 00:20
Maximum _ 14,4 C 13,9 C 12,2 C 95 % 1032,1 hPa 0,2 l/m 0 min 2 min 134 W/m 67,6 km/h
N-NW (8 Bft)
100,00 %
Durchschnitt _ 9,2 C 8,3 C 7,3 C 87 % 1022,3 hPa #1,6 l/m #0 min. #2:52 h 46 W/m 18,6 km/h (3 Bft) 97,33 %
© 2020 W. Hausmann